GFSSE_250_spd_000.txt.gz
Wind_Speed
116 122 128 128 124 127 128 122 126 127 117 113 113 106 100 102 99 94 91 87 86 78 73 72 74 66 68 66 68 64 62 52 51 52 43 42 40 33 32 39 38 43 44
124 134 127 127 128 131 126 121 125 109 108 103 100 98 96 93 93 88 84 85 80 74 68 63 61 63 67 61 62 56 47 43 43 43 40 36 33 37 34 34 36 43 46
130 131 131 131 129 121 114 115 108 106 97 98 96 94 95 90 86 84 83 77 75 70 66 57 54 62 64 60 60 47 40 43 36 35 39 34 33 33 32 35 37 37 42
136 130 130 128 118 111 105 102 107 101 94 88 90 81 77 78 79 77 76 71 63 58 59 54 57 64 61 58 49 49 40 39 37 34 34 33 32 33 34 36 39 35 39
131 125 121 110 103 102 103 96 97 94 93 88 84 79 75 65 67 65 63 62 51 52 51 54 55 57 58 53 45 44 46 44 48 40 42 37 33 33 36 38 37 41 41
121 112 105 101 99 101 97 94 91 86 78 76 77 72 66 59 56 54 50 45 43 51 50 55 54 53 55 50 50 49 47 45 49 49 45 40 37 37 37 39 42 42 42
108 101 100 95 87 82 78 75 74 72 70 66 59 55 52 48 50 48 46 47 45 49 51 56 52 56 63 52 56 54 48 50 44 52 50 41 41 39 44 44 46 47 43
86 79 70 70 70 67 63 64 63 59 56 50 49 48 43 40 42 42 42 45 47 50 54 57 55 59 62 56 60 59 57 47 50 50 51 51 49 43 53 47 50 49 43
60 54 49 51 52 46 44 44 38 33 32 32 32 32 33 36 38 40 41 47 51 53 58 62 56 61 68 62 57 62 57 58 56 58 55 55 52 55 53 50 51 47 43
37 36 36 37 32 27 30 27 26 26 26 25 25 24 23 25 29 33 36 44 50 56 60 57 59 61 65 67 68 69 62 62 64 62 60 61 57 58 53 55 49 50 46
21 26 23 19 21 20 20 20 20 22 21 21 23 23 24 25 28 29 34 38 44 51 60 66 64 60 71 66 70 76 69 66 66 67 70 71 72 65 59 60 57 55 52
14 19 26 27 25 22 20 21 22 21 21 21 23 24 24 26 27 31 33 37 42 50 50 62 61 69 71 70 75 77 82 81 67 67 69 74 71 71 65 62 58 55 54
25 29 36 33 34 36 34 32 31 32 33 27 30 30 26 25 26 28 32 36 40 46 52 55 59 65 69 69 75 77 87 78 73 68 70 65 76 71 65 59 59 60 59
30 29 29 30 28 28 29 26 23 22 22 21 24 25 24 28 28 33 30 30 36 44 51 56 61 68 72 75 79 70 83 91 83 81 76 75 72 73 73 72 63 57 58
25 25 25 25 25 24 24 23 20 20 19 16 16 20 19 16 21 25 27 29 34 35 39 47 56 64 68 72 75 78 77 80 93 89 91 86 80 74 78 78 76 77 62
22 24 26 25 25 24 23 24 24 23 22 20 21 19 22 24 23 29 30 27 26 27 32 37 45 56 63 73 78 75 76 79 87 97 97 101 102 94 89 79 82 84 76
25 26 27 26 28 28 28 27 24 24 25 27 28 28 30 30 30 35 39 40 37 34 35 37 44 52 57 62 73 79 86 80 83 88 101 106 108 107 109 106 99 86 80
26 26 26 24 26 29 30 32 35 35 35 34 34 35 37 38 37 38 38 40 42 46 49 48 49 45 52 59 67 71 79 84 89 89 86 89 102 108 111 114 110 108 98
25 26 27 28 29 30 33 35 36 38 41 38 41 42 43 43 43 41 44 46 49 50 51 53 59 56 54 52 57 67 73 79 88 92 94 91 89 101 110 111 113 113 110
27 29 30 31 32 34 35 38 41 45 48 49 46 47 49 50 51 49 50 51 53 57 59 61 64 65 64 62 58 58 66 73 81 91 97 99 97 92 88 99 111 115 115
30 32 32 36 38 39 40 43 46 49 51 50 47 46 47 50 54 54 53 54 58 63 66 68 72 74 74 70 72 64 65 72 76 83 88 98 100 103 97 92 98 100 113
35 39 39 39 42 42 44 46 49 51 53 54 55 55 56 59 59 60 61 62 66 71 72 77 82 83 82 83 80 74 70 72 76 81 87 91 98 98 103 102 96 100 100
43 44 45 46 46 46 50 52 54 56 61 64 65 65 65 65 68 71 70 74 75 75 80 82 87 91 91 88 87 81 75 73 80 86 87 92 94 98 97 101 106 102 103
51 52 53 53 57 58 62 65 63 64 68 71 68 68 70 72 73 76 77 78 80 81 83 87 92 94 95 95 90 83 77 76 81 83 91 94 96 95 98 96 103 108 107
54 58 60 63 66 66 68 71 72 72 75 76 77 78 79 80 83 86 87 88 88 92 94 94 99 101 101 98 92 86 82 80 80 81 84 95 96 97 97 99 98 104 110
58 63 67 69 67 70 70 71 76 78 77 79 81 83 84 87 90 94 98 101 99 101 101 104 105 104 104 92 89 82 81 81 82 79 76 86 95 96 96 98 100 97 109

GFSSE_250_spd_003.txt.gz
Wind_Speed
105 112 114 119 121 126 125 126 124 128 126 129 126 121 111 108 97 97 92 90 87 91 84 84 81 77 73 70 69 65 65 63 67 67 65 65 64 58 55 49 49 48 51
124 123 128 126 122 124 127 130 128 123 120 115 114 113 103 104 98 94 91 86 81 82 80 73 69 70 67 59 59 63 62 56 60 61 64 57 53 56 50 40 43 45 52
129 126 127 129 129 126 122 121 119 117 112 110 109 104 102 99 97 92 90 85 81 76 72 69 65 56 53 50 55 53 52 57 62 57 55 55 45 45 47 41 43 41 48
131 131 130 126 124 120 118 118 115 111 110 104 104 101 99 98 91 90 81 70 67 67 65 54 52 48 45 47 55 50 56 57 64 60 55 54 44 46 47 45 41 42 45
130 126 122 113 116 115 115 109 100 101 92 91 89 82 77 72 71 72 71 70 67 58 54 48 44 47 47 49 59 58 58 56 56 53 54 56 48 47 47 45 44 41 42
122 117 109 104 103 96 89 84 78 74 73 63 67 63 63 66 68 64 64 57 57 50 47 43 47 50 54 54 62 61 59 59 55 51 52 56 57 51 50 47 46 45 45
115 109 104 93 80 70 68 67 63 58 59 60 58 58 54 52 53 54 54 50 47 45 46 44 47 56 57 59 60 60 57 58 62 51 53 54 51 56 52 47 46 46 47
94 78 64 62 59 55 54 50 51 52 50 48 44 42 41 43 43 42 45 46 47 45 46 46 51 57 59 57 58 58 60 54 54 60 47 56 54 51 55 56 45 49 47
51 49 44 42 39 36 36 37 36 36 32 29 30 30 29 30 29 29 32 38 44 47 49 50 52 59 59 56 55 57 66 60 56 49 54 53 54 54 55 61 60 48 52
32 26 22 20 21 16 14 15 14 15 17 17 17 18 20 21 23 25 26 28 32 41 46 49 51 58 61 59 52 56 63 65 60 64 53 66 54 51 51 61 63 61 54
10 7 8 9 11 11 9 8 10 15 17 15 16 15 13 15 18 22 23 26 29 33 35 41 54 59 62 59 59 59 66 70 67 64 64 59 63 53 55 48 54 56 49
9 13 14 15 16 18 19 17 16 20 23 24 23 26 24 24 22 18 19 21 28 32 36 39 44 51 63 65 60 62 62 71 70 71 65 66 66 67 62 59 53 54 53
17 20 21 22 22 23 23 23 21 21 21 20 19 21 20 21 20 20 20 21 18 19 30 39 44 47 53 59 67 66 63 65 76 74 74 72 63 72 72 72 68 52 54
20 21 21 22 23 24 25 24 22 20 17 15 16 17 14 16 17 15 18 18 19 20 20 19 26 39 47 52 59 62 70 65 64 78 81 82 80 70 74 78 74 73 69
16 19 20 21 21 22 23 25 25 23 22 23 22 17 18 18 18 20 23 25 25 25 21 18 18 22 28 36 47 60 65 73 71 67 78 83 79 83 78 73 79 82 82
19 19 20 21 20 23 26 27 28 27 27 27 28 27 26 25 25 26 27 27 27 25 23 26 27 21 17 21 28 37 48 55 71 77 76 72 88 87 90 81 76 75 81
21 20 20 22 24 24 27 27 27 29 31 35 36 35 33 31 32 35 36 34 34 34 33 34 33 30 33 35 31 30 30 37 50 57 73 80 77 78 93 88 89 79 74
27 26 24 24 23 25 27 30 32 32 32 33 38 37 35 35 34 36 37 39 41 43 43 42 41 43 43 43 44 42 45 42 39 48 59 66 83 82 80 88 95 96 90
27 29 31 32 33 33 35 35 35 38 40 40 40 42 42 43 43 44 46 48 48 49 50 51 52 53 55 54 53 53 53 54 53 53 48 58 67 78 88 88 87 100 104
34 33 35 37 38 39 39 42 45 46 46 50 50 49 50 53 54 54 52 52 52 54 56 58 60 62 64 64 64 64 63 62 60 59 62 59 62 72 81 89 96 93 96
38 38 40 40 39 41 45 48 52 55 56 57 57 53 53 56 58 58 59 61 61 61 62 65 68 68 68 68 69 69 70 69 68 65 67 67 70 73 78 82 87 98 96
42 43 46 47 46 46 48 52 57 60 60 61 62 60 60 62 64 65 67 68 68 68 70 73 76 78 78 78 78 81 80 78 74 74 76 77 77 76 80 87 87 91 104
51 52 53 55 56 59 59 60 61 62 62 65 67 69 70 71 72 72 75 76 77 79 81 82 83 87 90 89 88 87 88 87 85 86 85 85 84 83 85 91 93 94 93
57 59 61 63 65 67 66 65 66 67 68 69 72 75 78 81 82 85 87 88 89 91 91 90 90 91 93 96 96 97 98 99 94 91 97 94 89 87 88 92 97 98 98
57 59 62 65 68 68 69 68 70 72 76 78 80 83 85 88 91 93 97 99 100 102 102 101 103 103 104 105 103 101 105 103 97 93 87 97 95 92 90 90 95 99 99
60 63 65 67 67 69 72 75 78 80 82 86 90 93 96 98 101 102 103 104 108 109 111 109 107 104 102 101 101 99 98 97 95 94 90 83 87 93 93 91 93 98 101

GFSSE_250_spd_006.txt.gz
Wind_Speed
106 110 111 112 118 119 121 118 128 127 126 121 118 117 115 108 109 109 105 106 104 99 94 90 91 87 82 77 73 71 72 70 67 66 64 64 66 65 67 66 70 65 57
111 115 118 122 125 128 123 130 126 123 117 112 113 110 109 108 103 104 98 96 88 91 85 84 82 82 77 74 68 65 60 60 61 63 60 59 62 60 63 65 67 62 55
118 116 118 118 121 125 127 123 117 116 114 110 106 111 106 99 95 91 86 79 74 74 74 70 69 68 66 64 62 54 53 54 53 52 53 57 58 58 58 58 58 59 56
123 125 127 128 121 120 118 116 120 111 106 107 100 93 91 82 77 72 71 67 64 64 62 56 57 55 58 55 56 49 42 48 45 46 51 49 49 53 53 55 53 51 53
133 125 130 126 121 118 114 112 106 96 88 82 83 79 73 68 64 58 61 58 58 57 59 57 56 56 56 54 47 41 39 48 47 44 45 46 49 47 56 55 54 52 56
134 127 130 116 121 112 99 86 79 75 72 64 61 58 55 54 54 55 56 56 53 53 52 49 49 48 51 49 46 43 45 48 50 49 48 48 50 48 54 57 55 56 59
130 121 117 108 86 70 65 63 56 54 52 45 44 45 46 45 44 44 43 42 41 45 46 47 46 46 46 46 45 47 45 47 52 54 52 47 55 54 57 58 54 55 59
113 97 86 69 62 56 53 49 47 40 33 34 34 33 34 36 35 34 33 33 35 37 40 41 42 43 42 46 49 51 50 48 51 58 55 50 50 51 48 56 54 56 60
78 61 55 53 49 45 41 37 29 25 24 23 25 25 24 24 27 28 28 26 26 27 29 34 38 40 42 44 49 48 46 50 48 51 57 53 54 40 37 50 55 56 61
53 43 40 32 22 20 15 12 9 10 9 9 11 13 12 13 13 17 20 22 23 24 25 26 31 39 44 46 51 48 48 46 54 54 54 51 61 59 47 46 53 50 53
20 14 8 10 9 9 8 7 8 11 12 12 13 13 13 14 13 14 16 17 17 18 22 24 27 31 38 45 50 53 45 45 50 55 57 58 59 62 55 45 54 56 56
6 8 11 12 15 16 20 18 19 20 20 20 21 20 21 22 19 17 18 17 17 14 11 13 23 29 32 35 43 49 56 44 48 53 57 59 61 63 64 57 56 57 53
9 12 15 17 17 17 18 18 17 17 16 21 23 20 21 20 19 17 19 22 23 21 18 13 11 12 18 31 38 42 49 54 54 54 54 66 62 67 61 66 62 58 61
12 17 20 20 19 22 25 23 23 22 20 23 25 28 27 26 26 25 26 27 27 26 24 22 19 16 18 18 24 34 40 48 52 56 65 54 68 67 70 63 73 68 63
14 15 18 22 24 25 26 27 27 27 27 26 28 29 32 31 30 30 30 31 30 30 29 23 22 22 18 17 17 20 23 30 42 55 58 70 64 64 75 72 66 73 76
17 18 20 22 24 25 26 26 28 29 29 28 29 29 30 31 30 30 30 32 32 33 34 33 34 33 30 26 23 24 25 22 25 28 38 58 71 71 66 80 76 75 76
26 28 28 27 28 30 31 30 30 30 31 32 34 35 36 38 38 37 37 38 39 39 40 41 40 40 40 38 36 36 35 35 35 35 33 32 46 69 73 70 84 80 79
27 26 25 26 29 32 33 34 33 33 34 37 39 42 43 42 43 43 43 42 42 43 43 42 43 44 45 46 47 49 50 48 46 45 45 44 40 41 51 71 80 81 89
34 34 35 37 39 41 42 42 44 46 47 49 49 49 48 45 45 47 48 50 51 52 54 53 53 53 53 54 54 55 55 56 56 54 52 52 53 52 51 45 66 75 84
42 44 43 43 44 47 47 49 50 53 54 53 52 52 53 54 56 57 57 59 59 61 62 63 64 65 65 63 63 64 65 65 65 63 61 59 59 59 59 61 56 59 76
48 48 47 48 50 53 54 55 56 57 60 61 60 61 60 61 62 63 65 67 67 66 68 70 72 73 74 74 73 75 75 75 76 74 72 72 70 70 70 68 67 65 63
52 55 54 53 55 55 58 59 58 58 59 62 65 68 69 69 70 71 73 75 77 79 80 82 82 83 83 84 84 84 82 83 84 82 79 79 80 80 79 78 76 74 74
54 56 60 58 61 62 60 61 62 63 66 69 72 74 76 79 80 82 84 87 91 93 95 96 97 97 96 95 96 95 92 92 94 94 91 90 89 89 89 88 86 84 83
56 58 58 61 61 62 63 64 67 71 72 74 77 80 83 87 90 93 96 97 100 103 105 105 106 104 104 101 102 104 108 104 101 100 101 99 96 97 98 97 96 94 92
56 57 58 60 63 65 70 72 73 76 79 82 87 89 91 94 98 102 107 109 108 108 107 106 107 106 102 101 99 99 100 103 99 96 95 99 100 102 100 98 98 98 99
57 61 63 66 69 74 77 81 84 88 92 94 97 100 103 104 106 109 111 111 110 109 108 107 103 100 94 94 97 95 93 95 96 99 97 94 99 104 103 102 101 100 100

GFSSE_250_spd_009.txt.gz
Wind_Speed
98 102 104 104 106 109 114 114 107 106 112 115 120 120 116 116 113 112 109 109 106 104 103 102 99 96 93 91 85 84 83 81 78 74 71 68 66 67 66 68 67 62 61
109 111 113 113 116 118 119 128 121 122 123 121 116 111 114 111 114 106 101 96 94 93 90 86 83 77 79 72 71 71 70 68 68 65 65 59 58 59 58 56 56 57 59
111 111 115 118 125 128 131 123 127 128 122 118 115 110 98 89 90 85 83 86 81 78 81 76 69 66 64 62 62 60 58 57 59 58 57 56 53 52 50 49 52 54 56
109 111 117 119 123 129 129 126 123 119 115 106 95 90 84 75 74 68 68 67 63 61 62 59 57 56 54 53 51 49 49 53 51 48 50 52 48 48 51 49 51 53 53
114 119 126 129 127 128 128 124 110 97 83 73 73 71 68 65 60 60 55 56 54 54 54 53 52 50 48 50 49 48 44 44 45 47 48 45 44 44 46 46 52 52 52
123 128 128 126 119 120 107 90 70 64 62 60 58 53 52 51 45 44 39 38 41 41 42 44 45 44 44 49 53 47 45 48 44 44 44 44 43 37 40 43 44 44 49
127 124 123 110 101 89 76 64 57 51 49 46 42 39 38 35 34 33 32 33 33 33 33 33 34 37 37 38 42 44 44 43 41 40 40 44 36 39 35 36 41 44 44
122 106 93 84 75 62 51 48 40 35 32 32 31 29 29 27 26 25 23 24 25 25 25 24 27 29 31 33 34 38 40 41 42 39 34 44 38 37 35 43 49 48 51
106 80 67 53 48 38 33 31 28 27 22 21 22 23 22 20 18 14 13 14 17 19 20 22 22 22 25 28 33 37 39 42 44 39 41 43 44 40 46 41 56 54 51
62 49 46 37 39 30 28 25 21 19 20 20 23 22 23 20 18 17 16 15 16 16 16 16 18 19 19 20 27 33 35 40 44 40 39 45 44 43 51 42 44 51 52
44 32 26 23 22 23 24 24 23 22 23 24 25 26 26 26 28 27 24 22 23 23 21 19 19 21 20 20 19 23 34 36 41 43 42 45 49 44 51 55 48 51 47
20 17 18 21 20 21 21 20 21 20 20 21 23 24 26 25 24 25 26 26 25 25 24 21 18 20 20 21 22 23 24 32 41 45 45 44 53 50 49 52 54 57 49
12 13 14 14 15 17 19 20 21 21 21 22 21 21 23 26 26 25 25 24 25 26 24 24 22 20 19 22 21 21 27 28 32 44 51 47 48 56 55 55 59 56 55
10 9 10 16 18 21 22 24 23 23 21 19 19 21 24 26 27 28 27 26 25 26 26 26 25 23 22 24 24 23 21 22 29 36 45 54 51 56 64 61 62 65 62
10 14 21 25 26 27 29 30 30 27 27 28 28 28 29 31 34 35 34 33 32 31 31 31 30 28 26 30 31 28 27 26 22 24 36 49 63 59 62 60 60 65 69
20 26 29 28 28 30 32 33 35 36 37 36 36 38 41 42 42 41 39 38 37 37 37 35 35 35 35 35 35 35 33 34 32 31 27 30 48 63 65 70 62 59 69
21 28 32 32 33 35 35 37 40 42 43 44 45 45 47 46 46 46 45 43 41 42 42 43 43 42 42 41 41 42 42 41 42 42 42 39 38 38 54 73 75 69 64
28 29 29 31 38 39 42 44 44 46 48 47 48 49 48 47 46 47 48 48 48 49 51 52 51 51 52 52 51 50 50 49 50 51 51 51 49 48 45 45 64 75 80
35 35 40 42 44 46 50 48 46 48 49 48 47 47 47 47 50 53 54 55 56 57 58 58 59 59 60 61 62 60 60 59 59 58 59 60 58 56 55 55 53 57 70
44 46 46 48 47 47 50 50 49 50 53 54 54 55 56 58 59 61 62 63 63 63 65 66 69 72 72 72 70 69 69 69 68 69 69 67 66 66 64 63 64 63 63
46 49 47 49 51 50 52 51 54 57 58 59 60 63 65 68 70 68 68 66 67 69 70 72 73 75 77 79 80 82 81 81 80 80 80 77 76 76 75 73 71 72 71
48 47 48 50 50 52 53 56 60 62 64 65 65 67 68 69 71 73 76 80 81 83 86 88 89 90 89 90 91 92 90 91 90 90 87 85 86 86 84 84 82 80 79
49 48 49 53 55 58 60 61 62 64 65 68 69 70 71 74 78 80 82 83 88 92 94 97 99 98 98 97 96 96 96 92 94 95 95 95 95 93 93 92 90 89 88
51 52 56 58 60 61 63 66 69 71 71 72 72 74 80 83 84 87 88 89 92 95 96 98 100 101 101 98 96 96 94 94 92 93 93 93 96 100 99 100 100 99 98
53 56 58 61 62 65 69 72 74 75 76 76 82 84 86 89 92 94 96 96 96 98 103 101 99 99 102 100 97 95 95 92 92 89 89 92 94 96 99 101 104 106 107
54 56 59 65 69 72 76 79 79 79 81 85 88 91 94 97 99 100 101 104 106 109 110 105 101 101 101 100 97 95 93 89 85 88 90 88 91 93 94 98 100 105 110

GFSSE_250_spd_015.txt.gz
Wind_Speed
85 92 90 90 94 96 99 100 104 106 107 112 110 107 113 116 114 113 114 108 108 108 105 101 96 94 87 86 84 89 79 81 83 84 84 90 91 90 86 87 80 80 72
92 93 95 96 102 104 106 107 110 114 116 122 117 124 110 110 112 112 108 96 96 89 81 82 75 78 76 73 73 77 76 73 77 77 77 73 69 71 72 71 73 70 56
97 96 99 102 104 107 109 113 115 119 121 123 112 108 108 108 106 93 83 75 76 71 68 65 64 64 65 63 64 65 69 73 73 71 69 67 61 63 59 61 62 63 67
101 102 103 105 109 114 117 120 114 108 105 101 104 104 96 83 74 64 62 54 50 46 46 45 45 45 46 49 54 55 59 62 66 69 70 62 58 51 53 55 51 53 54
102 104 106 108 112 109 108 102 102 99 98 97 92 75 67 54 47 35 33 27 24 24 28 31 33 35 38 39 41 43 48 51 52 54 60 62 62 61 53 48 53 55 53
104 104 109 114 109 104 110 93 95 90 86 78 62 51 32 29 23 16 16 17 18 21 23 23 22 23 25 26 27 30 34 37 43 50 49 48 47 50 53 51 49 46 47
109 112 111 105 96 92 95 88 84 76 60 42 29 23 19 16 18 21 24 27 27 28 28 28 28 26 22 23 25 24 23 25 30 33 37 38 35 39 38 45 41 43 43
112 105 98 94 92 84 87 68 58 39 24 24 19 19 20 20 22 24 26 28 30 31 32 33 33 30 28 30 25 21 21 19 21 26 31 36 42 41 36 38 39 42 34
96 91 92 83 79 73 58 41 21 19 17 18 18 18 20 20 22 24 26 30 32 31 31 31 31 31 31 32 30 29 23 20 17 17 21 28 33 37 38 36 38 45 40
89 78 80 68 54 37 24 20 17 18 19 20 21 22 23 22 21 21 24 29 30 29 28 28 28 28 28 28 28 29 27 22 19 16 17 22 27 34 36 38 43 45 48
75 70 57 45 27 21 20 17 18 20 22 22 24 25 25 25 25 25 28 31 31 31 30 29 26 25 27 27 26 26 26 23 22 17 16 21 23 29 34 40 42 48 48
60 49 34 27 22 21 20 21 22 23 24 27 30 31 31 30 30 32 33 34 35 33 32 30 29 28 28 28 28 27 26 26 25 21 18 17 24 28 34 41 43 47 46
29 24 24 25 22 21 21 21 23 24 26 29 31 35 36 37 37 37 35 36 36 37 35 34 32 29 28 29 29 30 28 27 28 26 22 19 19 27 32 42 46 48 46
24 22 26 29 25 28 29 30 31 32 35 38 39 40 41 40 43 42 40 40 41 39 38 36 35 35 33 32 31 31 32 33 32 31 28 27 23 21 32 44 45 46 50
24 25 30 29 31 33 38 38 38 41 43 45 42 43 43 43 44 45 44 44 44 43 41 41 41 42 42 41 40 38 35 35 36 35 34 37 32 28 25 33 51 54 54
26 29 31 33 35 38 40 41 45 45 45 44 44 45 46 46 46 47 48 47 48 48 47 48 47 48 49 49 48 48 46 44 42 41 40 39 42 40 36 33 35 55 57
31 36 37 39 39 40 41 41 44 47 47 47 46 45 47 46 48 49 50 51 53 53 54 54 55 56 56 56 56 55 55 52 50 49 50 47 46 48 47 44 41 38 60
37 36 38 39 39 40 40 40 46 45 43 42 45 48 50 51 52 54 56 56 57 58 57 58 57 57 59 60 60 61 60 61 62 61 57 57 55 54 55 54 53 49 45
39 40 39 37 37 40 42 46 46 42 45 47 48 49 51 53 55 57 59 60 60 60 61 61 61 63 66 66 64 65 67 68 66 65 67 68 65 62 63 63 61 61 58
37 37 36 38 42 46 45 43 44 47 48 49 51 53 56 58 61 62 63 62 61 60 62 64 62 62 65 68 70 69 72 72 76 76 75 74 71 70 70 66 72 72 68
40 44 44 47 43 39 44 47 48 50 52 55 59 60 62 65 64 65 66 65 68 70 70 71 73 76 76 83 83 81 80 86 86 84 88 86 82 80 76 78 71 79 79
46 48 42 41 47 48 49 50 52 56 61 64 66 67 69 71 71 72 75 75 75 77 79 78 82 84 86 90 93 95 93 91 96 93 93 92 93 91 89 86 83 81 82
43 39 46 48 50 50 52 55 58 62 65 66 67 69 70 71 73 76 79 80 83 84 85 88 91 95 96 99 105 104 103 100 104 106 102 97 95 95 99 94 91 89 87
43 49 50 52 52 54 57 60 62 64 66 67 68 72 77 79 81 85 89 91 91 94 95 96 100 102 107 108 112 114 113 111 110 109 111 105 98 98 96 102 98 94 94
50 52 52 53 56 60 63 65 66 70 73 76 77 80 83 87 91 94 97 97 100 103 105 108 110 113 116 119 117 118 119 119 115 112 105 108 108 100 100 99 106 100 96
55 55 56 58 62 65 67 67 71 77 78 82 86 90 93 97 101 105 107 110 112 115 116 118 121 125 125 128 126 123 119 115 109 104 102 100 105 108 100 101 101 103 100

GFSSE_250_spd_021.txt.gz
Wind_Speed
77 78 80 82 83 85 88 92 92 97 99 105 107 110 106 110 112 120 115 98 98 104 105 96 90 80 74 69 65 65 67 69 70 72 70 67 61 58 57 57 55 70 69
82 84 85 87 88 91 94 96 98 101 103 106 105 106 110 114 118 107 96 103 104 102 83 73 66 61 59 55 52 49 53 55 56 56 57 59 57 48 50 56 64 64 59
83 85 89 92 94 95 98 102 106 107 108 107 109 110 110 112 99 101 97 96 86 70 50 47 45 42 41 37 37 38 41 41 44 47 49 53 58 50 46 65 73 72 72
89 94 97 96 98 98 104 108 114 113 110 113 106 104 101 99 92 90 79 68 54 37 24 21 18 19 17 14 14 15 20 24 30 34 34 41 53 54 52 52 44 58 70
93 95 96 99 99 102 111 111 114 117 116 113 105 107 89 89 81 69 48 40 29 12 12 18 23 23 22 22 20 20 19 15 18 20 25 30 37 47 44 46 41 47 55
94 97 100 103 106 110 107 112 114 113 113 115 105 83 80 70 56 40 23 18 13 13 14 22 23 20 20 19 20 21 21 25 20 14 17 21 29 37 50 49 49 49 61
94 97 101 100 102 104 107 111 111 109 98 81 79 72 58 45 32 25 22 22 21 20 22 25 30 28 25 23 20 18 20 21 23 21 14 15 19 28 37 50 55 52 47
98 100 101 104 104 105 108 105 101 83 78 72 65 54 40 32 26 23 24 26 28 30 32 32 31 28 27 27 23 22 19 19 21 22 21 11 13 22 35 35 67 59 55
96 96 97 100 104 103 98 92 80 70 61 52 43 37 30 29 27 26 28 30 30 33 34 34 31 30 28 27 25 22 21 19 15 18 20 18 10 16 26 40 48 52 53
94 96 100 100 101 99 88 70 67 54 47 40 35 35 31 32 31 31 34 36 35 36 37 36 34 32 32 30 27 25 23 22 18 18 14 14 17 11 21 33 44 46 49
97 94 94 96 90 78 71 60 53 48 40 36 34 38 39 39 38 41 42 43 43 43 41 37 36 36 35 32 30 29 27 28 25 23 26 16 13 13 12 23 40 43 42
91 94 93 83 70 65 57 50 45 40 39 40 41 42 45 46 46 50 50 50 49 47 44 41 39 37 36 35 33 32 31 30 29 28 29 31 23 18 15 13 24 39 46
93 92 79 63 54 50 44 41 40 42 42 43 46 46 49 51 51 53 52 48 48 47 45 43 41 39 40 39 37 36 36 35 34 33 35 35 34 29 24 19 18 25 35
85 71 62 46 37 34 40 42 47 47 45 48 52 52 54 54 53 52 51 47 44 43 44 45 47 46 45 44 45 45 44 45 45 44 41 40 39 35 34 31 26 26 29
68 52 41 36 37 34 47 44 38 46 48 51 54 55 54 54 52 53 51 46 45 48 50 49 49 50 51 51 48 47 48 47 47 46 44 46 46 43 38 37 35 32 29
49 33 29 33 46 37 36 38 53 59 53 51 51 50 52 56 52 49 47 49 48 48 50 52 53 53 53 51 51 49 48 50 49 49 48 45 44 46 47 45 44 41 38
31 29 26 13 46 38 37 49 51 54 49 49 51 54 55 54 50 54 52 51 53 55 55 55 55 54 53 52 52 52 51 52 55 54 54 53 57 55 53 50 47 50 48
33 30 32 34 39 41 50 50 51 52 56 53 48 49 52 56 59 56 58 58 59 59 58 58 59 58 58 55 55 57 57 59 57 57 59 61 58 59 55 54 53 50 51
36 33 32 33 35 39 47 50 53 54 52 51 56 55 54 54 56 60 63 64 65 65 64 65 65 66 64 65 65 65 65 66 67 67 68 68 67 64 66 65 62 60 58
38 36 30 30 33 42 48 53 53 51 54 60 60 60 60 60 64 67 69 69 72 71 69 71 73 73 75 76 76 76 75 76 76 76 75 74 74 73 72 70 68 71 70
36 38 39 38 41 44 49 55 56 56 59 63 63 63 62 63 66 71 72 73 72 73 76 80 82 82 84 88 86 85 84 87 87 89 89 85 82 80 80 80 79 79 77
40 41 43 45 48 51 56 59 59 62 65 68 68 65 67 68 72 74 75 76 78 80 82 85 89 92 93 97 97 96 93 94 95 94 94 95 95 92 89 87 87 88 88
43 45 48 51 54 56 58 60 61 66 69 69 72 73 76 78 79 81 84 86 87 90 92 95 96 99 102 106 110 108 106 104 102 104 106 107 106 104 102 104 102 100 98
45 50 52 53 56 61 61 61 63 66 69 72 75 77 81 84 86 90 92 93 97 100 103 106 108 110 114 114 116 119 120 119 117 110 111 112 115 116 115 116 115 116 117
51 53 56 58 60 59 60 66 68 70 74 79 82 85 87 90 95 99 100 103 106 110 116 120 123 124 124 123 121 120 124 126 124 112 102 113 116 117 117 116 113 111 111
54 58 61 63 62 62 64 66 67 72 79 85 88 90 94 98 103 106 110 111 114 120 125 127 128 129 127 123 123 122 119 117 118 113 104 95 96 102 104 100 99 98 95

GFSSE_250_spd_024.txt.gz
Wind_Speed
78 74 79 79 79 82 84 86 88 90 94 95 96 97 98 102 108 109 111 109 111 108 96 98 106 92 77 65 59 56 54 54 53 53 54 55 60 58 56 58 65 64 65
80 82 83 83 85 87 87 90 92 95 95 98 101 103 105 106 111 115 115 113 103 90 96 93 72 56 53 46 43 41 41 42 42 44 44 47 48 55 49 51 58 55 56
83 83 85 84 83 84 90 93 95 99 95 100 102 100 105 110 111 112 102 87 88 89 78 54 39 24 27 25 24 24 26 28 33 36 39 41 45 48 43 45 48 51 66
79 80 81 84 88 91 96 96 99 98 101 102 103 105 106 110 107 94 83 83 78 62 49 34 20 22 22 22 22 21 20 21 19 25 32 35 38 41 41 46 54 63 70
80 84 89 90 94 96 96 101 100 102 103 102 106 108 109 103 90 82 74 66 53 37 27 26 22 24 24 24 22 21 21 22 19 19 19 27 33 36 40 49 61 69 74
87 89 88 94 95 97 100 97 102 103 100 103 106 105 100 89 70 64 55 45 35 31 30 31 30 31 31 29 26 22 20 20 20 19 22 19 21 30 37 48 62 76 72
83 83 88 92 96 98 98 101 99 99 101 104 102 90 83 67 63 53 44 39 34 35 36 35 37 37 37 37 35 32 27 23 23 19 19 22 19 17 29 42 53 72 72
85 87 90 92 94 95 95 99 101 100 97 96 83 66 60 58 48 41 37 36 34 33 35 38 40 41 41 38 36 34 29 27 26 23 20 22 23 19 19 31 40 54 63
87 87 88 90 97 97 95 99 102 101 97 85 63 57 51 44 39 40 39 38 38 37 40 42 46 46 44 42 39 35 33 28 27 26 23 21 24 21 20 21 32 49 53
89 88 88 92 91 93 95 98 95 88 69 57 52 49 44 42 39 42 43 44 45 47 48 50 52 50 45 43 41 37 36 33 29 29 28 23 20 25 22 20 21 37 62
86 86 91 93 94 93 95 92 88 72 50 49 46 47 45 43 45 47 46 46 49 51 52 51 47 47 44 43 40 39 36 36 32 32 30 31 25 22 23 24 19 25 40
85 92 95 98 97 94 87 82 63 51 45 44 47 46 46 49 51 51 52 52 51 51 50 49 46 44 41 39 40 41 40 38 37 37 38 35 36 33 30 24 24 22 33
92 93 95 93 85 77 71 55 45 45 44 45 47 45 46 48 53 56 55 53 50 50 50 42 40 42 43 42 42 43 44 44 44 43 42 43 42 40 37 35 29 26 25
87 87 81 75 64 59 49 41 44 46 49 44 45 48 50 49 49 49 47 48 50 50 44 44 46 45 45 46 48 49 48 47 47 46 45 44 43 43 41 38 37 36 32
77 69 67 60 52 46 35 36 42 45 49 44 48 51 56 51 51 50 51 48 45 45 47 47 47 50 52 52 52 51 51 52 50 46 44 44 43 43 42 40 40 38 40
78 65 56 49 49 38 37 38 43 47 53 50 54 56 57 57 54 48 51 50 50 51 49 49 52 54 56 56 56 55 54 54 54 53 48 47 49 49 48 47 45 45 44
57 54 49 43 42 42 45 51 52 51 52 53 54 56 61 60 56 58 58 56 56 56 56 56 58 61 61 61 61 60 60 58 57 57 57 56 56 55 53 51 50 51 52
44 40 42 40 44 48 49 53 60 62 54 50 57 60 57 56 59 61 62 63 61 59 61 62 64 65 65 65 64 65 64 64 62 63 64 65 66 66 64 64 63 63 60
46 40 44 44 44 46 50 52 52 51 54 56 57 58 58 59 61 64 67 66 64 65 67 68 69 70 70 71 70 70 72 73 72 72 73 73 73 74 73 73 72 71 70
46 46 43 42 43 48 48 51 54 57 59 62 64 65 64 64 64 66 67 66 67 69 71 75 78 78 77 77 78 79 81 82 83 84 83 83 82 81 82 81 80 81 81
42 43 46 47 49 51 54 54 56 60 63 65 67 69 66 66 66 67 68 70 73 76 79 81 82 84 86 86 85 84 85 88 89 91 94 95 95 92 90 91 90 87 88
47 45 46 48 50 51 52 56 62 65 67 68 70 69 70 72 74 77 77 79 83 85 88 89 89 90 93 93 94 94 91 94 97 100 103 106 103 103 104 101 98 98 94
46 50 48 47 46 50 56 61 65 68 72 73 73 75 78 79 80 82 84 88 90 90 91 94 95 98 101 103 105 105 104 105 105 109 114 114 115 114 113 111 108 105 104
45 46 50 51 53 55 59 64 67 68 69 72 75 79 83 84 87 90 92 94 97 100 103 105 107 109 112 113 116 117 119 120 120 113 115 121 126 124 122 120 115 113 111
46 47 49 52 55 59 61 63 66 68 70 74 80 86 91 95 98 100 102 105 107 111 114 117 120 122 125 127 126 125 126 128 124 115 109 112 116 121 123 121 118 116 115
48 51 52 51 54 56 59 62 66 69 74 78 84 89 93 97 101 103 106 110 114 119 123 128 131 133 133 132 129 127 123 118 114 110 100 95 98 103 106 108 111 110 110

GFSSE_250_spd_027.txt.gz
Wind_Speed
78 80 81 82 82 77 79 82 85 86 86 86 90 94 96 95 98 96 97 99 105 106 104 103 94 90 94 88 72 61 58 52 48 42 42 43 45 49 52 55 55 57 61
79 81 81 82 80 82 86 88 87 84 86 91 97 96 98 100 99 100 100 103 101 102 99 89 84 84 73 59 51 46 46 43 43 42 40 38 38 38 42 45 48 50 56
81 80 81 83 83 87 84 84 85 88 92 94 97 98 101 102 100 102 106 104 103 98 88 79 74 64 53 46 42 36 38 35 36 36 40 38 37 35 38 41 47 51 58
82 81 84 85 84 84 86 86 92 93 93 96 96 103 102 102 103 102 103 102 97 85 75 65 59 49 41 37 34 35 37 35 32 32 33 34 37 37 34 38 44 47 58
80 81 84 84 86 88 91 93 92 93 97 99 99 101 101 103 102 102 101 96 83 72 60 53 46 46 41 42 41 39 40 38 34 30 29 31 30 32 32 34 40 46 54
80 83 84 88 90 89 88 91 94 97 100 99 100 97 102 100 103 102 91 73 64 57 51 47 43 46 43 39 39 41 43 41 37 30 27 28 26 28 28 29 36 42 49
88 88 84 83 88 88 92 98 95 99 102 96 97 102 100 100 96 84 70 62 55 47 44 41 40 41 45 46 45 48 47 42 37 35 32 24 24 25 26 23 29 37 47
78 80 82 90 93 98 94 97 98 99 96 95 102 100 102 94 79 65 55 50 46 42 41 43 46 48 50 51 51 53 49 43 40 37 36 32 26 23 24 24 22 28 40
88 86 89 91 89 91 93 89 94 91 93 102 100 93 88 72 63 51 48 43 43 45 47 48 50 52 52 54 50 49 46 42 40 37 36 34 31 26 25 23 22 18 28
84 87 86 87 87 93 93 94 93 96 99 95 89 74 64 62 54 50 45 44 44 46 49 51 55 53 51 52 49 45 43 37 36 37 37 35 35 30 30 27 24 23 18
81 84 87 88 87 86 91 92 96 96 91 81 72 65 58 52 50 50 47 45 45 49 53 53 53 51 50 47 41 39 38 38 39 39 40 38 38 38 34 34 33 28 23
77 77 84 84 84 88 89 90 87 82 78 63 61 56 56 53 53 46 45 49 48 49 46 44 45 48 48 41 41 42 42 42 41 43 44 46 45 44 44 40 38 35 31
70 76 83 86 89 90 90 85 84 78 64 58 54 56 54 55 56 51 48 51 51 53 50 49 49 46 44 47 46 44 45 46 47 47 47 48 46 45 44 44 41 39 35
79 84 88 92 91 90 81 83 73 61 60 53 53 52 51 52 56 56 52 55 55 53 46 48 49 51 51 49 47 50 51 52 52 52 53 52 50 48 45 43 43 41 38
84 86 90 94 92 88 78 73 63 59 56 56 53 56 56 60 60 54 58 57 60 55 53 51 50 53 54 53 52 55 57 58 59 58 56 56 55 52 50 46 43 42 39
82 87 85 84 77 70 69 60 53 51 49 55 58 60 61 65 61 64 61 59 58 55 56 55 55 56 56 55 58 61 63 63 62 61 60 58 56 55 56 55 52 50 46
84 83 74 81 65 55 55 52 53 51 56 60 63 64 62 63 62 63 63 62 61 59 60 60 60 59 57 57 59 64 66 67 69 69 67 65 63 60 59 59 58 58 57
77 69 61 56 53 51 52 52 51 55 61 63 62 65 62 58 61 64 68 71 69 64 63 64 64 63 63 63 64 67 69 71 72 72 72 71 69 69 70 69 69 67 65
59 49 40 40 44 50 57 59 62 65 62 61 65 62 62 62 65 68 70 71 73 69 70 70 71 70 69 69 71 74 77 79 79 78 77 77 77 76 75 75 76 76 75
45 42 36 44 45 54 59 64 66 63 67 69 67 65 66 68 69 71 72 74 72 72 75 76 76 77 77 76 78 79 81 84 86 87 88 87 86 86 85 84 83 83 83
48 48 44 45 49 57 58 64 71 69 70 70 66 67 70 72 74 75 74 74 75 76 77 80 81 82 85 87 87 86 86 86 87 90 93 95 96 96 96 95 94 92 90
47 46 51 54 56 55 60 65 66 66 67 67 68 71 73 75 75 76 76 76 78 81 85 87 88 90 92 94 93 94 93 94 96 98 101 104 104 105 106 106 104 103 102
53 53 52 53 54 57 60 63 64 65 67 69 72 73 75 78 79 79 81 84 87 89 93 96 98 101 103 104 104 104 104 103 103 107 113 115 118 117 118 116 113 111 110
51 50 51 50 53 56 59 62 64 66 67 69 72 75 78 80 82 85 88 92 96 100 104 108 110 112 112 113 115 116 117 116 115 113 118 123 127 127 127 125 123 123 122
52 50 50 53 55 58 61 64 66 68 71 75 77 79 82 86 89 92 97 102 106 108 113 115 117 119 119 122 120 119 120 121 122 119 112 116 122 127 128 123 118 116 122
45 43 51 53 55 58 60 63 67 71 74 76 78 81 85 89 95 99 104 107 111 115 118 119 121 123 125 123 122 125 123 120 118 117 110 104 105 113 119 116 115 112 111

GFSSE_250_spd_030.txt.gz
Wind_Speed
75 75 74 77 79 78 79 82 82 83 86 83 86 90 87 89 91 93 96 97 98 95 96 98 99 98 93 93 88 78 70 61 54 51 47 44 37 34 31 33 44 50 52
79 80 81 81 83 83 82 84 84 88 86 87 88 89 90 95 96 99 97 98 98 95 99 102 100 96 90 82 72 61 52 47 44 42 42 42 45 43 35 34 32 40 44
81 83 83 84 86 88 85 87 91 88 90 89 90 94 93 95 99 97 98 98 98 101 100 100 96 86 76 64 58 47 45 43 45 42 42 40 39 41 43 35 34 29 38
83 85 88 91 90 89 91 92 89 90 91 93 94 92 96 101 97 100 97 95 103 99 100 97 85 81 71 57 49 44 47 46 45 43 40 41 39 35 35 36 34 31 30
87 90 90 89 91 89 92 91 89 93 92 95 93 97 101 96 100 92 95 101 100 97 93 84 75 64 55 49 44 43 42 40 40 43 43 38 38 35 33 34 33 32 25
85 84 85 85 86 91 91 92 91 93 95 93 98 98 98 92 94 96 102 97 93 92 86 71 64 53 52 46 43 46 46 50 47 48 44 40 37 34 36 30 27 27 22
85 84 86 85 90 92 90 86 86 90 93 95 97 96 91 94 100 99 97 91 89 79 71 64 53 48 45 46 47 49 48 51 49 46 43 40 36 34 31 33 30 28 26
83 85 85 86 85 86 82 84 90 91 94 96 96 90 94 98 94 97 91 86 76 68 59 52 49 49 48 51 52 52 51 49 50 45 40 37 33 32 28 28 30 27 23
82 81 80 82 80 84 87 88 90 89 90 89 89 91 93 97 93 86 82 79 68 63 55 54 48 49 52 52 52 50 48 47 44 39 37 34 31 31 34 31 29 30 29
71 76 81 83 86 86 86 86 88 87 85 85 94 96 95 91 83 77 73 69 57 51 47 46 49 50 49 49 45 44 45 44 40 37 35 34 33 33 34 36 36 34 31
81 84 85 86 84 86 88 90 85 83 84 96 94 94 87 80 72 67 68 59 55 51 50 53 52 51 52 50 47 45 43 40 41 40 36 35 35 35 35 37 38 40 38
82 87 85 85 86 88 91 84 90 93 95 94 89 76 77 79 72 66 61 60 55 52 53 51 54 54 52 48 48 47 46 47 47 41 40 42 41 42 39 39 38 38 38
90 83 84 82 85 78 83 85 86 89 87 86 79 75 72 72 67 64 55 55 60 58 51 52 56 55 52 50 50 48 46 46 47 47 48 47 48 48 47 44 42 39 36
81 79 81 78 79 83 85 88 86 85 80 77 71 72 61 61 62 58 62 62 61 61 57 58 57 53 52 53 53 53 51 50 49 50 52 54 54 53 51 50 47 42 41
76 78 77 74 78 81 86 84 76 74 67 66 64 61 61 62 63 64 67 68 68 64 60 61 61 61 59 58 57 56 57 57 54 54 55 56 58 58 56 55 53 50 47
71 74 81 81 85 84 82 77 73 69 67 66 62 59 63 64 65 70 71 68 68 62 60 63 67 68 66 64 63 62 62 61 60 59 59 59 60 61 61 59 58 54 53
79 79 81 84 87 79 76 65 66 65 65 62 56 57 61 65 68 69 66 69 69 67 68 67 68 70 70 71 68 67 66 68 67 65 63 62 64 65 67 67 65 61 58
81 82 79 73 67 59 58 57 58 63 61 58 60 64 65 67 68 71 74 72 70 69 69 71 72 74 74 72 70 72 72 72 72 73 73 73 73 73 72 73 72 68 65
69 66 57 52 43 50 51 53 62 65 65 65 67 68 70 72 76 77 75 72 71 72 74 76 78 78 75 73 73 73 75 78 78 79 81 83 83 82 81 79 77 77 75
53 51 44 38 41 50 51 64 64 66 67 69 70 72 75 79 77 74 72 72 75 77 79 80 79 79 78 76 77 79 82 85 86 87 88 88 90 90 89 87 86 85 83
45 44 36 32 49 54 64 67 70 72 74 75 75 75 78 77 76 75 75 76 78 79 78 79 81 82 84 85 86 87 89 90 92 95 97 100 100 100 99 97 95 93 92
32 33 37 45 50 56 60 67 74 74 73 75 75 76 77 76 76 76 77 78 80 83 84 84 85 87 89 90 91 93 95 96 99 102 104 106 106 107 107 105 104 102 102
43 50 52 55 58 61 63 67 71 70 71 72 74 74 75 77 78 80 82 83 85 88 89 90 93 95 96 101 103 104 104 105 105 107 110 111 111 111 112 115 115 114 113
50 53 55 57 59 61 65 69 67 69 70 71 73 75 77 80 83 84 86 88 90 92 95 98 101 105 108 112 115 119 119 119 117 116 117 115 116 120 122 123 122 123 123
41 42 45 48 51 57 62 63 65 69 71 73 75 78 79 81 84 87 88 91 95 98 103 107 111 115 118 120 124 125 125 123 126 126 119 119 118 120 128 130 126 121 118
44 47 48 51 53 58 61 64 67 69 71 73 76 79 82 84 87 91 94 97 102 105 108 114 119 122 125 126 127 125 124 122 121 118 109 100 101 107 112 116 115 115 116

GFSSE_250_spd_033.txt.gz
Wind_Speed
76 72 70 68 72 73 75 79 78 79 80 81 84 85 87 92 89 86 85 89 88 89 89 88 94 94 87 87 88 81 86 78 74 64 58 48 47 46 44 41 34 30 30
83 81 77 75 78 78 80 81 82 83 85 86 90 88 90 88 89 87 89 89 89 91 92 92 91 88 87 89 81 79 79 69 61 55 50 52 49 45 43 41 39 34 30
83 82 83 79 80 80 85 83 86 87 88 92 91 93 90 90 89 91 90 90 92 91 95 85 91 89 83 87 83 74 69 61 55 46 48 46 45 43 38 36 39 34 30
86 86 85 82 82 84 87 90 89 90 93 95 90 90 91 89 88 89 92 91 92 97 83 91 87 84 84 79 73 64 59 55 49 47 46 45 44 47 41 37 34 34 31
86 88 89 91 92 89 91 90 91 92 92 88 90 90 90 86 88 91 92 92 90 92 90 93 85 83 79 74 61 52 51 47 49 51 47 45 43 42 39 37 33 32 32
89 87 84 90 90 92 90 89 89 85 93 91 91 89 85 89 90 90 93 83 89 96 95 86 82 78 73 58 55 47 46 48 49 51 49 44 43 41 37 35 33 28 27
80 84 86 82 80 80 79 80 85 95 94 91 86 87 89 88 89 92 89 87 96 88 84 81 80 73 60 54 47 45 46 48 49 48 45 43 41 36 36 31 28 27 24
73 69 74 75 83 83 83 87 88 89 86 85 89 89 89 90 94 91 90 93 86 82 84 78 69 63 57 51 44 45 46 48 47 43 40 39 36 34 32 30 25 26 26
80 82 85 83 80 82 86 83 88 85 85 88 90 92 88 88 94 90 90 92 89 82 75 71 64 55 54 47 47 45 48 46 43 42 39 33 30 29 28 28 28 25 26
80 82 81 88 89 84 82 79 80 85 84 87 91 89 88 91 93 91 94 83 79 75 74 65 58 54 52 52 48 47 48 45 42 40 39 36 36 32 29 27 29 29 27
75 75 72 73 71 73 78 88 86 84 86 90 88 92 93 87 88 86 84 75 74 67 68 60 55 58 55 51 49 51 50 44 42 43 40 39 38 35 34 34 33 34 33
74 76 77 74 79 80 75 73 79 87 83 89 87 85 89 86 82 81 75 71 67 67 61 59 59 62 63 57 49 49 45 45 44 45 43 41 40 40 40 40 40 40 38
77 73 80 73 80 76 78 80 83 87 86 86 86 85 88 76 72 72 71 66 64 64 62 59 63 62 59 57 54 50 49 49 49 50 50 48 47 45 46 46 45 45 42
64 63 70 70 68 69 76 81 83 82 85 81 86 81 85 75 71 68 65 64 62 64 62 65 64 60 60 56 55 55 56 55 52 53 52 53 52 50 48 49 49 47 45
66 65 68 72 79 78 75 81 82 82 83 81 76 78 72 69 68 68 66 68 65 64 65 65 64 69 69 67 65 64 62 62 60 58 55 54 54 52 52 52 52 51 49
58 60 64 71 73 75 77 84 82 77 72 69 70 69 71 67 65 66 64 66 68 70 72 72 74 73 70 69 69 68 67 67 66 65 62 59 58 57 56 56 56 56 53
61 70 69 73 74 78 81 81 73 63 66 70 76 73 73 68 65 64 67 71 74 76 77 78 77 74 71 71 71 72 73 72 72 70 67 65 63 61 60 59 60 61 62
65 69 72 70 76 73 63 55 54 58 66 69 70 74 71 70 69 72 74 73 77 80 81 82 78 76 74 74 74 74 73 72 72 72 73 73 71 70 70 68 68 68 68
69 67 60 57 55 53 44 37 47 53 57 57 57 60 71 75 79 80 83 83 84 82 84 82 79 76 75 76 76 77 78 79 80 80 79 79 79 79 79 79 78 76 75
58 60 56 52 42 42 34 50 51 62 63 62 70 77 81 83 83 86 83 83 83 83 80 78 78 79 79 80 82 83 84 84 85 85 86 86 86 86 86 86 86 85 84
44 39 42 43 34 32 59 51 55 66 77 82 85 88 87 86 85 85 84 83 81 79 80 81 82 84 86 86 86 87 87 87 88 91 92 93 95 96 98 98 96 96 95
38 37 21 52 37 41 62 57 62 68 72 78 81 81 82 84 83 81 80 82 83 85 86 86 87 88 89 89 89 88 90 93 95 98 100 103 106 108 110 109 108 106 104
38 39 39 45 50 53 56 60 65 71 74 74 75 75 74 76 79 81 82 83 84 85 87 88 88 89 91 93 95 98 100 103 105 108 112 116 119 122 123 123 121 119 118
36 37 39 42 45 48 52 55 60 63 67 70 72 74 75 77 79 81 82 83 83 85 88 90 93 96 99 103 108 111 114 117 119 117 120 122 124 128 131 129 125 124 124
37 39 42 45 48 49 52 55 58 61 63 65 68 71 73 76 79 81 82 83 84 87 91 96 101 106 109 112 114 116 119 123 126 127 125 126 125 125 126 124 120 116 117
39 42 45 48 52 55 57 59 61 64 66 68 70 72 75 78 78 79 80 85 90 95 100 104 108 110 112 116 120 123 123 121 123 124 118 116 116 117 112 108 103 98 101

GFSSE_250_spd_036.txt.gz
Wind_Speed
85 86 87 85 80 78 78 78 72 71 75 74 76 78 79 82 83 87 87 87 87 89 85 85 82 87 88 94 87 83 82 87 84 72 63 58 57 53 49 50 47 45 41
80 83 85 83 82 81 80 78 78 78 80 82 81 81 85 86 86 88 87 85 91 84 81 81 87 87 90 86 82 87 84 80 73 62 57 53 50 48 49 46 40 35 37
83 86 85 82 83 81 81 79 79 80 82 83 82 87 89 90 87 86 89 88 85 81 81 88 86 86 95 85 90 84 77 71 65 59 53 50 48 48 48 46 44 41 36
83 84 85 82 83 80 78 80 79 80 82 87 90 91 90 86 87 91 93 91 82 85 87 82 88 87 88 86 84 77 74 64 56 54 49 49 47 48 46 42 40 36 35
83 86 85 85 84 81 81 84 85 88 90 90 92 88 88 91 93 90 89 84 86 83 86 88 83 84 82 83 77 69 66 58 54 50 47 48 49 45 43 41 38 34 29
83 82 86 84 85 87 89 88 87 88 90 91 89 92 91 88 90 90 86 83 84 86 91 83 85 82 86 76 73 65 59 52 48 48 46 46 45 41 38 37 33 30 27
78 85 88 88 90 87 83 87 91 90 86 87 90 89 89 92 86 84 86 88 90 90 87 82 78 82 75 66 65 58 52 51 51 44 45 43 43 38 35 32 30 25 22
80 84 80 69 72 83 76 77 76 79 83 87 88 85 89 83 85 88 88 88 84 79 77 81 77 78 66 63 62 57 52 49 49 43 43 44 41 34 30 27 26 23 23
62 60 60 66 69 69 71 81 84 79 83 82 88 86 81 87 82 86 80 82 79 82 82 80 74 68 66 64 56 55 50 52 49 44 43 44 41 37 36 31 29 27 24
71 74 75 74 82 80 83 82 79 80 81 80 84 83 78 80 81 82 85 82 80 81 79 71 67 64 65 58 58 52 53 55 53 46 43 40 42 39 37 36 34 32 30
68 71 68 75 80 70 70 74 70 72 75 79 76 77 82 83 81 79 79 79 81 80 73 69 63 67 61 61 53 53 55 51 50 49 46 41 40 42 40 39 36 35 36
68 62 62 65 62 65 63 72 76 75 76 74 76 77 80 81 78 78 82 84 82 72 69 65 60 63 64 59 55 57 49 51 50 48 50 46 45 44 46 45 43 41 42
60 58 58 57 57 58 64 63 67 71 76 72 74 74 77 80 83 81 83 78 70 68 65 63 62 66 65 62 63 62 59 57 52 50 48 51 51 50 48 49 49 47 46
62 60 62 62 64 61 62 69 67 71 75 77 77 76 81 84 79 83 82 76 70 66 67 68 65 64 64 68 68 64 63 62 57 53 51 53 52 52 53 51 51 51 49
60 59 53 57 56 59 62 65 68 76 79 83 80 79 83 86 82 76 75 72 68 68 66 65 66 67 71 69 72 70 67 63 58 56 55 56 55 55 55 55 54 54 53
57 60 60 61 64 68 69 70 75 80 83 81 78 78 81 78 75 73 74 68 64 66 69 71 74 77 79 77 76 73 72 69 66 65 62 60 62 61 60 57 57 58 59
52 55 59 62 65 68 74 77 76 78 71 69 68 70 72 77 78 76 76 77 75 79 82 83 85 86 81 78 77 76 75 72 70 68 68 68 66 66 64 62 61 61 62
55 58 61 68 67 69 73 76 71 63 56 58 61 63 66 66 66 67 75 75 85 86 90 95 93 89 83 81 79 77 76 76 74 74 73 74 73 73 72 70 70 68 65
58 63 59 60 61 62 59 54 51 47 52 57 64 62 62 70 74 81 78 84 90 95 99 98 92 88 84 82 82 81 81 81 81 80 80 79 77 77 76 75 76 76 73
66 66 65 62 57 51 40 33 43 50 58 62 59 65 72 77 80 86 89 93 97 98 93 87 85 85 83 83 84 83 84 84 84 83 84 84 83 82 82 82 81 81 80
49 52 48 43 39 26 36 34 50 55 53 60 69 76 82 83 88 91 95 96 96 86 87 87 86 85 86 85 86 86 86 84 85 84 88 87 87 88 91 92 93 92 92
38 36 35 31 33 37 41 47 58 61 65 66 73 82 85 89 92 91 89 85 86 85 84 85 85 86 85 81 81 83 85 89 92 91 95 100 100 102 104 103 102 102 102
35 37 37 36 37 44 47 52 60 62 66 66 70 72 74 76 78 79 81 83 83 84 85 84 83 83 85 89 90 94 97 101 104 108 108 110 113 116 118 119 119 119 120
27 29 32 34 36 40 45 49 54 58 61 65 68 71 74 77 79 80 80 80 80 79 79 82 86 90 94 97 99 100 105 108 112 113 116 120 120 125 128 126 121 118 117
29 33 36 39 43 47 51 55 59 63 66 68 71 71 71 71 71 70 71 73 75 80 85 89 94 97 101 102 104 106 109 109 112 115 117 117 119 122 123 125 123 114 108
34 37 40 43 46 50 53 56 59 62 64 65 66 67 67 67 67 70 74 79 83 88 92 96 100 103 103 106 108 109 110 111 113 114 116 117 119 121 119 117 113 108 105

GFSSE_250_spd_039.txt.gz
Wind_Speed
81 82 83 83 86 86 83 86 86 86 81 75 76 79 81 82 79 81 78 79 82 89 90 89 89 90 85 84 81 84 88 87 85 80 87 84 75 70 61 60 56 52 50
78 78 80 83 84 83 82 83 84 82 81 80 77 79 79 79 77 77 82 84 90 90 88 89 90 86 88 80 85 88 87 86 81 82 83 71 67 62 57 53 53 49 49
78 77 79 81 85 84 82 82 86 85 87 84 83 79 77 80 82 84 88 89 90 90 91 90 89 86 86 83 87 86 83 82 82 87 77 67 58 53 50 50 50 48 46
77 79 77 80 82 83 81 82 82 82 82 84 86 86 85 86 87 88 87 91 88 88 88 89 85 84 85 86 88 85 74 80 80 74 66 61 55 49 48 49 46 40 39
78 69 71 75 77 82 79 79 79 81 85 85 85 88 89 89 92 93 92 89 90 89 87 84 84 88 86 82 77 76 80 79 73 66 62 57 50 49 46 44 42 36 35
67 67 78 77 77 79 81 74 79 80 79 82 88 89 87 90 87 86 86 86 86 87 82 85 84 78 75 76 74 78 76 72 67 64 61 54 49 48 46 41 40 34 31
72 80 83 78 80 82 81 84 78 80 86 90 83 83 78 74 77 81 88 85 83 83 82 77 78 80 76 73 77 71 70 66 63 60 55 50 48 46 44 42 40 31 28
58 66 63 71 79 82 73 74 79 79 70 66 66 76 82 86 87 84 82 81 83 80 78 75 77 75 75 71 72 71 65 62 56 58 50 52 51 46 44 43 39 34 28
39 46 55 60 59 58 66 65 58 63 68 70 84 86 87 81 86 81 79 85 80 75 75 75 70 76 72 68 66 63 61 58 55 54 49 49 45 45 45 42 39 36 32
47 52 53 62 59 67 64 64 69 77 84 90 83 79 87 81 77 79 71 75 75 76 74 75 70 70 67 64 66 61 58 56 58 52 51 47 46 44 44 42 38 35 34
64 70 74 71 74 73 79 80 79 78 73 78 75 72 76 77 72 74 74 73 77 75 74 73 69 67 65 63 58 55 58 60 56 51 53 51 53 49 45 45 41 39 37
73 75 75 76 80 74 70 66 67 71 70 73 75 77 72 69 73 73 77 82 80 77 77 76 71 67 63 57 60 60 59 56 55 58 58 57 55 52 50 47 45 44 43
73 76 74 69 67 68 61 64 65 68 74 69 70 71 77 74 78 83 83 85 81 80 74 75 68 64 62 57 53 56 58 60 61 60 58 59 56 53 49 54 52 50 47
68 78 80 79 80 78 78 69 73 77 66 67 71 75 78 82 85 84 82 77 72 71 73 70 64 60 61 60 61 62 64 62 66 59 54 57 55 50 49 51 55 54 51
72 75 72 70 69 70 71 72 65 67 63 69 76 77 81 84 86 89 83 79 80 77 70 66 69 67 72 73 77 79 80 85 78 69 59 57 57 54 53 54 55 58 58
66 76 76 78 77 80 76 66 68 72 71 74 77 78 81 85 84 75 74 72 70 73 74 74 72 78 78 84 84 86 91 88 76 71 67 61 62 60 58 58 59 60 61
47 50 55 56 56 60 63 67 69 72 76 80 81 78 74 70 68 69 70 69 73 78 79 79 74 80 86 89 94 94 94 83 77 75 72 69 66 65 67 66 64 64 63
48 53 55 58 62 63 66 67 68 69 68 69 67 63 62 64 68 67 71 72 75 75 83 83 85 91 96 99 97 99 87 84 79 77 74 73 73 71 68 69 72 73 69
50 53 54 59 60 65 68 69 66 68 58 58 55 63 62 66 70 71 70 72 79 79 83 92 96 101 104 104 102 90 84 83 82 81 79 75 75 74 71 74 73 75 76
54 55 53 60 62 63 62 60 58 47 44 51 56 58 66 70 72 76 79 82 86 91 96 98 102 105 96 95 88 90 90 85 80 78 77 77 78 78 79 79 81 81 79
58 56 57 57 56 58 57 52 50 49 51 59 60 65 74 81 77 84 88 89 92 93 97 102 94 91 92 90 85 79 79 81 83 82 83 85 88 89 89 91 90 90 91
51 52 49 47 45 45 44 46 47 51 51 55 61 69 72 77 88 86 89 90 87 87 85 87 87 82 79 80 82 82 84 91 97 99 98 99 100 103 106 108 107 107 106
42 40 38 35 35 34 35 37 47 52 54 61 64 67 72 75 79 82 84 86 87 86 81 77 76 79 83 86 90 95 97 99 101 106 109 111 112 114 115 118 122 122 120
30 27 27 28 31 35 38 43 46 50 55 61 65 69 71 77 79 80 80 78 75 71 73 77 81 86 89 94 100 103 105 107 109 108 110 112 112 116 117 116 120 120 119
23 25 29 32 36 40 43 46 49 54 57 60 64 66 68 69 70 71 69 67 69 74 80 82 89 94 98 100 103 104 104 104 105 108 107 111 112 117 117 114 114 116 116
25 29 32 36 39 42 45 48 51 53 54 56 60 64 66 65 63 61 65 70 75 79 85 90 94 99 103 104 105 105 106 107 109 109 108 104 103 105 105 108 109 109 106

GFSSE_250_spd_042.txt.gz
Wind_Speed
72 75 77 73 75 75 76 77 79 79 80 82 84 85 82 83 84 82 84 83 80 77 76 78 81 87 86 90 88 86 85 79 77 79 77 72 73 75 79 82 71 66 60
71 71 73 73 74 76 79 79 77 76 78 80 82 82 82 83 82 84 82 82 84 84 85 88 88 90 91 92 90 84 81 83 82 79 75 69 72 78 83 71 68 61 55
69 70 67 68 70 74 77 78 78 77 78 79 82 82 80 82 84 86 86 85 87 88 90 90 87 88 87 90 84 85 77 83 74 73 69 77 78 78 71 67 61 57 54
72 74 73 75 79 80 77 76 79 79 79 73 75 75 79 80 79 81 87 86 87 89 85 82 80 86 87 83 83 81 81 77 75 72 72 76 76 71 68 61 56 53 50
67 70 73 75 76 70 74 78 71 68 71 70 73 77 79 77 79 84 82 83 83 81 74 78 82 85 79 81 82 82 77 72 69 69 73 67 66 64 57 54 48 48 46
57 63 70 73 68 73 59 63 65 68 71 77 78 75 74 72 81 83 76 72 71 76 84 85 88 77 78 81 79 74 75 73 74 69 70 66 58 57 55 48 48 48 43
60 60 62 69 73 73 77 78 76 75 73 71 72 72 75 77 66 64 69 77 85 81 87 78 73 72 74 75 75 72 70 73 74 67 65 60 55 51 55 46 48 45 42
54 54 57 60 70 71 68 71 72 55 62 58 59 64 69 61 66 76 83 85 80 81 76 77 77 80 74 71 70 74 76 70 72 67 58 57 52 51 50 44 44 43 40
55 50 63 68 66 63 58 50 55 61 60 59 65 64 63 65 81 84 79 78 84 75 79 77 75 68 71 74 72 78 68 69 64 59 52 51 54 51 45 44 43 42 42
31 44 54 66 50 44 51 57 57 56 61 64 65 70 82 78 80 76 80 79 76 79 74 68 66 73 78 76 77 71 67 62 56 50 54 54 49 47 50 54 53 49 44
48 55 63 60 46 52 57 58 60 62 62 69 77 81 78 77 78 77 76 80 82 78 76 78 81 80 79 76 78 75 64 56 53 51 49 51 51 50 58 58 58 50 47
50 64 59 53 54 56 60 63 71 79 79 76 74 73 72 75 75 81 80 82 76 84 83 82 80 82 82 83 76 61 59 50 50 54 48 49 53 54 57 54 56 53 51
61 66 67 68 71 72 73 81 75 70 68 67 67 66 72 76 81 83 82 81 83 78 81 87 84 82 84 81 67 63 57 56 55 54 58 62 56 55 56 55 52 51 51
72 73 75 74 80 81 80 83 80 84 82 82 75 81 85 85 83 82 84 85 84 88 88 85 85 86 81 70 67 63 62 56 70 70 70 72 71 62 53 54 53 50 49
71 74 76 82 87 84 83 79 82 77 83 81 79 77 80 79 83 82 87 89 91 90 90 88 85 72 71 70 68 67 72 71 74 80 83 84 78 71 64 60 57 54 51
63 72 78 81 81 81 83 80 78 80 78 80 80 78 79 83 86 87 88 87 88 92 89 83 71 73 74 74 76 75 84 84 85 90 92 86 77 70 66 65 60 60 57
40 41 48 56 67 83 88 87 90 80 75 79 82 81 81 84 85 86 89 90 90 85 76 74 73 72 72 73 82 84 88 94 99 96 94 82 75 73 68 66 66 66 63
50 52 51 51 58 59 61 61 61 64 67 73 76 83 86 88 89 89 89 80 77 76 76 80 80 79 82 88 87 90 94 96 98 95 87 80 74 73 73 68 68 69 70
44 47 54 57 60 64 64 66 66 68 73 76 81 79 81 82 83 75 74 76 75 76 79 83 90 92 90 95 96 99 91 89 87 79 74 75 74 75 74 73 72 73 72
43 44 48 54 57 57 63 68 68 67 69 67 71 69 71 71 67 67 72 76 81 81 87 91 93 94 99 95 89 83 78 75 75 78 78 82 82 85 86 85 85 86 86
52 53 54 57 59 63 62 62 64 64 61 59 60 59 62 65 67 70 74 79 85 88 90 90 91 89 88 83 76 70 70 75 81 87 90 93 95 96 99 101 101 102 101
55 55 58 60 58 52 51 51 51 50 48 47 51 57 62 67 72 76 80 82 83 84 84 82 80 75 72 70 72 74 76 81 87 94 100 103 107 108 109 111 113 113 115
56 49 46 44 43 42 40 38 39 41 43 47 51 52 56 64 68 70 71 71 71 70 70 72 70 69 72 75 78 80 84 89 95 102 106 111 115 117 118 116 113 112 112
41 38 39 33 31 33 35 37 40 42 45 47 48 51 57 62 65 66 67 68 70 71 73 76 77 78 79 81 83 88 94 101 103 105 110 112 112 113 113 114 110 111 109
32 27 27 28 32 33 35 37 38 39 40 45 48 51 56 58 62 66 68 71 71 72 75 77 79 81 83 85 90 98 104 109 113 116 110 110 106 109 109 110 109 106 106
24 26 28 28 29 34 35 36 38 42 45 50 56 59 65 65 68 66 66 68 71 74 76 78 81 84 88 93 100 107 111 115 116 117 113 103 100 100 100 98 99 100 98

GFSSE_250_spd_045.txt.gz
Wind_Speed
66 65 66 69 66 67 64 66 70 73 74 74 74 77 78 78 78 80 81 81 83 82 83 84 85 85 87 89 87 86 80 76 80 82 78 70 65 67 68 70 69 72 75
68 69 71 74 69 67 63 64 67 69 71 71 71 76 78 78 79 80 82 83 79 78 81 83 82 83 82 78 79 79 74 75 82 83 71 68 70 67 70 68 70 72 77
66 68 70 70 65 61 64 64 66 68 68 71 72 75 78 77 80 82 81 78 77 80 81 82 81 84 80 78 80 75 76 81 84 71 68 69 68 72 71 72 76 77 72
71 67 68 69 67 67 72 71 71 71 74 73 70 73 73 73 73 74 73 74 78 79 80 75 76 76 71 71 76 76 75 70 72 74 68 70 71 70 72 74 73 75 68
72 71 70 68 72 70 72 74 71 71 72 71 69 70 63 68 71 72 74 74 75 74 72 72 68 71 76 78 78 76 75 71 76 73 67 70 70 77 77 76 70 64 63
64 67 69 65 66 66 69 72 68 69 72 70 67 63 72 75 73 72 66 64 63 64 64 62 67 83 84 83 82 76 74 74 72 70 70 70 75 79 77 74 63 57 53
53 60 63 67 66 67 65 66 66 64 61 63 67 71 75 70 62 63 61 65 65 61 66 66 77 80 81 84 74 76 79 76 72 77 79 81 81 74 71 63 54 53 51
44 58 63 62 71 71 72 64 60 54 56 62 63 57 59 58 60 65 66 68 65 68 71 78 75 82 78 76 78 84 72 72 76 84 82 80 78 68 61 50 51 51 45
62 64 58 64 63 67 69 63 52 55 62 55 54 57 59 60 59 63 70 72 73 75 81 79 83 81 76 78 78 75 83 81 80 84 79 81 70 63 56 53 48 45 43
57 51 58 58 65 52 46 52 55 61 48 51 53 55 58 60 65 64 66 74 78 76 81 81 77 75 77 83 79 83 83 84 82 82 82 70 62 55 50 44 47 50 49
56 63 68 70 52 59 51 57 56 59 55 50 52 59 65 69 73 78 82 84 86 87 78 77 81 82 82 82 82 85 86 85 84 75 67 58 53 45 44 53 53 49 55
41 51 59 50 54 63 59 60 60 55 57 56 62 66 70 78 82 82 80 80 73 73 77 82 84 83 84 87 87 88 91 88 79 65 59 54 50 48 57 54 59 60 59
33 32 42 46 60 63 61 64 59 62 64 68 68 68 72 68 71 76 84 85 91 87 84 86 88 91 89 87 90 90 86 78 73 63 60 58 59 61 62 62 64 70 73
47 44 48 57 59 57 56 59 67 66 70 73 77 81 82 88 90 87 82 88 85 88 84 83 87 89 89 88 91 81 70 69 68 66 68 69 74 79 78 76 75 69 68
58 55 55 59 67 64 70 71 72 74 76 81 83 87 92 91 90 90 88 83 81 83 86 91 94 94 95 93 81 74 72 70 70 71 78 77 79 79 80 80 78 71 65
59 61 64 68 66 68 74 75 78 80 85 87 90 92 92 93 92 91 91 87 87 92 93 92 92 90 83 78 74 71 75 77 82 87 88 82 87 83 80 74 71 71 67
47 62 67 72 74 77 77 79 84 84 84 80 84 88 92 93 92 82 79 79 87 91 89 86 80 76 74 74 79 83 87 90 89 91 90 88 83 78 74 70 68 65 64
28 33 45 57 63 73 67 60 69 75 76 79 77 71 71 75 79 83 84 82 85 82 78 74 74 74 76 79 85 88 92 96 97 93 90 85 77 67 64 67 69 72 74
36 43 38 44 48 55 60 61 62 64 66 70 73 74 77 81 81 81 81 80 77 75 72 74 79 83 85 88 91 93 91 89 87 84 78 73 69 70 72 74 75 76 77
42 42 49 58 56 58 58 60 64 68 70 73 76 76 77 74 71 70 70 69 70 74 77 80 82 87 88 84 80 78 78 77 74 71 72 73 76 79 83 85 88 89 90
46 49 47 50 54 57 61 65 64 67 70 72 69 66 64 58 57 61 65 67 68 70 72 75 78 75 75 76 75 74 76 76 78 79 81 82 84 86 90 93 97 100 101
43 46 49 52 54 56 59 63 67 65 60 57 53 51 51 51 52 52 52 55 60 64 67 71 73 75 76 79 79 79 76 77 80 81 83 88 92 98 102 106 109 111 112
48 50 53 53 54 57 58 59 53 51 47 45 46 44 43 41 45 52 58 63 65 69 73 75 75 75 76 78 78 78 76 74 74 80 87 94 101 106 112 117 122 123 123
50 51 49 52 53 49 51 48 41 41 42 40 40 42 44 47 52 57 62 67 73 76 80 80 77 78 78 77 77 77 79 83 85 86 93 101 108 114 121 124 128 128 123
42 40 41 42 44 42 40 40 41 41 38 38 42 46 50 55 60 64 68 72 76 81 83 80 80 79 79 77 78 83 89 94 100 103 102 107 112 116 120 121 118 115 112
35 34 31 33 39 39 39 41 41 40 41 45 47 51 56 59 62 66 72 76 81 84 88 82 79 79 79 83 89 94 99 104 109 113 113 110 107 106 110 109 107 103 100

GFSSE_250_spd_048.txt.gz
Wind_Speed
76 74 72 69 66 65 66 65 65 64 66 67 68 64 65 67 70 72 73 71 75 77 78 78 79 78 81 77 76 78 78 77 75 78 71 74 76 77 75 67 61 61 63
76 77 74 72 70 71 69 69 68 66 68 67 65 66 67 67 70 72 73 74 76 79 75 78 75 72 75 75 75 77 78 75 77 73 72 77 79 85 72 69 60 63 65
75 73 72 73 73 73 74 71 69 70 67 63 64 67 68 70 71 75 76 77 75 74 74 72 71 73 72 72 72 70 73 72 70 72 78 72 76 78 75 71 67 67 65
70 67 69 71 74 75 75 73 70 67 67 66 67 71 74 75 75 75 74 76 74 67 71 71 75 69 64 58 58 56 63 69 75 79 74 72 77 81 76 73 72 73 79
66 61 65 68 74 75 77 76 75 70 66 68 70 75 75 75 72 72 72 70 69 75 73 69 65 60 64 61 59 62 63 80 78 77 72 74 78 75 69 71 73 81 84
59 58 61 64 72 76 77 73 69 70 68 70 67 68 68 70 68 66 67 68 72 73 62 62 64 64 67 65 62 72 79 80 84 76 75 77 70 70 78 81 85 86 88
38 42 46 56 60 63 67 68 74 72 67 60 61 65 65 59 62 65 62 63 64 62 64 64 68 72 73 71 73 68 76 80 74 73 76 71 75 82 85 86 88 85 80
30 49 41 52 58 61 65 66 70 64 61 64 70 62 57 59 60 62 65 67 64 65 67 64 68 69 73 75 85 84 79 75 74 74 82 81 82 85 82 82 83 78 65
35 43 35 48 49 51 56 60 62 62 63 60 65 56 55 59 66 62 62 63 63 62 67 63 75 77 80 76 76 78 69 73 80 83 87 85 88 85 83 74 66 59 56
49 63 52 55 59 62 61 46 57 58 56 50 49 55 57 62 58 59 60 59 63 62 73 77 72 71 77 75 76 77 88 88 85 88 86 79 81 79 68 64 55 49 49
65 64 58 48 57 56 39 51 42 42 40 52 56 58 60 60 54 52 61 65 68 65 67 75 78 80 77 85 89 88 89 83 82 82 82 81 77 66 56 53 46 50 47
75 74 66 53 59 60 62 61 54 47 51 56 67 60 62 61 64 67 67 73 74 79 82 90 90 91 93 88 82 84 85 88 87 87 83 78 69 67 61 59 58 58 59
51 76 66 66 65 64 65 66 56 54 60 61 69 66 66 71 73 69 73 78 83 89 93 90 92 89 82 86 91 87 86 90 85 83 82 79 69 65 64 63 58 65 70
43 46 66 53 51 51 63 65 63 57 61 63 60 65 69 72 70 74 82 84 88 91 88 89 85 89 87 85 88 84 89 91 92 87 83 76 72 70 71 75 74 73 77
39 43 38 38 36 39 49 53 56 64 61 67 63 70 73 77 79 82 83 82 87 82 78 81 79 82 84 87 89 84 79 75 74 75 75 76 77 79 81 83 84 82 79
40 38 38 46 54 52 58 61 61 64 69 73 76 73 77 80 84 87 84 83 84 78 81 80 85 83 82 84 84 79 77 79 80 81 82 83 83 82 81 80 81 80 77
49 53 56 64 65 64 62 63 64 65 68 71 76 75 68 70 80 81 79 79 84 86 85 90 91 86 78 75 79 82 85 87 88 89 90 88 87 85 82 79 74 73 72
47 57 54 50 55 61 65 63 69 75 75 76 66 75 75 75 76 77 74 81 86 93 88 83 78 70 72 75 78 81 82 84 85 86 88 85 82 82 77 75 73 71 69
43 51 49 46 50 57 60 61 56 58 65 69 68 72 74 73 75 80 83 80 80 78 70 67 65 63 64 66 69 73 77 80 82 85 86 85 82 81 79 77 76 77 77
42 46 50 43 37 42 52 54 59 61 65 65 71 71 71 74 77 76 76 74 65 62 59 58 60 65 68 71 73 78 80 79 81 81 82 82 81 80 79 80 82 83 85
39 40 40 38 43 47 54 53 55 58 59 62 68 71 76 76 73 72 65 61 60 55 56 58 63 67 72 76 78 83 83 80 80 82 82 80 81 80 81 82 85 88 91
35 35 43 45 50 51 49 53 57 57 58 61 66 67 65 65 63 61 59 58 56 59 62 65 68 72 76 80 81 87 83 81 81 80 80 81 85 87 92 97 100 104 106
41 39 42 49 55 55 52 52 54 59 58 57 59 60 58 58 58 55 56 57 59 63 68 70 74 78 80 85 86 89 81 76 75 80 84 89 94 98 103 108 113 117 119
37 38 43 46 47 49 51 48 52 54 54 52 54 54 56 56 55 58 58 62 65 71 75 78 82 83 86 90 93 95 88 82 80 81 88 93 98 106 113 117 118 119 119
42 42 44 45 46 47 49 48 48 47 47 50 54 56 56 56 58 62 64 67 70 74 79 84 84 86 91 94 98 95 90 89 90 93 93 99 107 113 113 112 112 111 111
40 40 36 40 42 42 42 42 44 46 50 53 55 58 60 62 66 68 70 72 76 80 83 85 86 90 94 98 97 93 90 92 96 102 108 108 106 106 108 109 111 108 105

GFSSE_250_spd_051.txt.gz
Wind_Speed
78 78 76 74 72 72 70 69 69 70 68 66 66 66 67 66 69 71 70 70 70 70 70 70 70 73 75 75 73 73 73 75 74 73 73 69 69 65 64 65 72 70 70
80 78 77 75 75 73 71 72 72 71 70 70 70 67 69 70 72 71 70 70 71 71 72 72 73 75 72 73 69 73 70 73 71 69 69 59 59 64 68 75 75 68 66
79 78 75 75 73 72 71 71 71 72 72 73 73 70 71 72 73 68 73 73 76 75 75 73 73 70 72 70 69 72 69 67 61 58 62 63 67 72 72 78 65 68 71
76 76 72 70 68 66 69 71 73 73 73 74 71 71 71 73 72 72 75 77 79 77 76 73 71 69 68 66 70 64 63 64 66 67 70 66 74 75 79 69 68 72 68
76 73 67 60 62 62 67 71 73 75 74 75 73 72 72 73 72 74 76 77 75 70 72 72 69 68 67 66 67 62 60 64 66 67 65 72 75 73 73 71 70 73 78
62 51 50 51 55 62 67 66 65 70 76 78 75 76 72 68 72 73 74 68 70 75 70 65 62 60 58 61 64 65 67 65 66 73 71 75 75 71 68 70 81 85 89
34 38 41 46 51 49 52 58 63 64 67 66 66 68 68 70 65 65 68 70 75 68 64 61 64 65 64 63 63 62 64 70 69 74 78 75 74 69 89 84 85 81 80
37 39 39 37 41 52 56 55 53 55 62 67 65 62 64 61 63 62 64 68 63 61 63 67 60 60 60 59 61 65 68 77 76 80 77 83 83 86 83 81 82 86 87
16 24 37 44 44 50 53 59 51 48 48 54 56 54 48 54 53 58 59 60 65 66 62 58 63 61 62 62 66 67 77 80 84 84 85 83 82 84 79 84 81 74 75
22 44 51 57 49 50 45 43 44 52 50 54 50 53 48 54 60 58 60 64 69 66 69 57 65 67 70 72 80 78 84 86 89 94 83 79 83 83 77 79 79 66 68
52 66 67 58 65 59 49 39 49 45 51 45 50 48 49 52 51 49 58 65 63 61 63 65 69 74 77 80 82 87 90 87 81 74 80 77 74 74 77 70 66 64 63
61 69 64 74 63 58 59 52 51 52 57 60 50 50 52 55 58 56 60 61 65 68 72 76 79 79 79 84 92 93 89 78 79 78 79 79 74 72 74 78 77 77 68
65 66 67 71 64 59 58 58 59 49 58 57 61 63 63 60 58 62 70 75 74 73 76 78 79 85 87 91 89 81 85 83 87 81 78 74 76 72 72 76 75 74 74
57 71 74 70 68 65 61 59 55 59 64 67 68 68 62 67 65 64 73 70 75 75 80 80 86 87 88 83 78 81 80 81 83 86 87 83 80 79 77 79 80 78 78
47 66 70 69 73 73 67 59 54 59 55 56 52 57 61 66 69 76 74 78 83 84 81 84 89 89 83 85 81 85 84 84 84 78 78 74 75 78 78 79 81 78 77
34 47 49 51 51 57 52 61 50 57 57 55 61 55 63 66 72 77 79 79 86 84 85 89 85 81 85 83 78 71 71 67 64 66 69 70 74 77 79 80 80 81 80
28 42 49 48 52 53 50 56 57 55 55 54 59 66 71 74 75 74 83 82 81 82 87 86 87 81 73 64 67 68 67 66 69 72 74 77 78 80 79 78 79 80 80
31 30 45 59 56 55 54 55 59 62 57 61 65 68 65 70 77 79 79 84 86 86 80 76 73 67 69 67 67 64 67 69 71 73 76 78 80 83 80 76 75 75 75
32 32 38 44 53 56 58 63 62 62 62 66 67 65 61 64 69 74 77 80 79 80 79 79 75 71 67 65 65 68 73 76 79 80 82 84 85 85 82 76 74 74 74
35 35 38 44 52 55 58 58 55 48 56 53 56 65 64 70 74 73 76 78 78 75 69 67 67 68 67 66 69 74 78 81 82 84 86 89 89 91 86 80 77 77 77
40 43 41 45 47 48 51 50 56 55 60 56 61 61 67 67 71 70 70 67 67 65 66 68 70 68 69 71 76 82 85 87 87 88 91 95 97 96 88 83 83 84 86
43 43 40 36 40 45 50 50 49 50 54 56 61 62 66 67 65 63 63 64 64 67 69 71 72 73 75 79 81 83 87 88 88 92 94 99 101 97 91 88 89 92 96
39 40 43 43 44 45 45 50 52 55 60 62 57 58 60 57 58 60 63 65 68 72 73 74 75 79 80 82 85 87 85 86 89 95 100 104 101 96 95 97 100 104 109
31 33 37 41 41 43 47 48 51 52 53 53 52 52 51 55 58 62 67 70 73 75 77 77 79 80 82 83 85 87 90 92 92 93 98 104 100 99 101 105 109 113 116
41 43 46 47 48 49 51 49 50 47 45 45 47 51 54 59 63 67 71 74 75 76 79 80 80 79 80 82 86 90 95 98 99 101 101 102 97 102 106 111 116 119 115
45 47 48 46 43 38 37 41 42 42 43 47 51 54 58 63 66 69 71 70 71 71 74 77 80 79 82 87 91 93 97 99 103 106 105 100 102 107 114 118 116 112 111

GFSSE_250_spd_054.txt.gz
Wind_Speed
76 77 75 72 72 72 71 71 71 69 68 67 65 66 66 66 67 67 69 69 71 72 74 74 75 75 72 73 74 75 76 76 75 72 76 70 71 69 64 61 56 61 66
76 74 73 72 73 72 70 71 72 71 68 67 66 68 68 70 70 71 71 72 74 77 75 77 76 73 74 75 76 77 76 74 71 72 67 69 65 61 60 62 65 67 64
77 75 74 71 69 69 69 70 71 70 68 68 67 68 70 71 72 73 75 75 76 76 76 78 77 76 74 77 75 71 70 69 67 67 66 64 62 61 62 64 66 68 70
78 76 75 72 68 66 65 68 68 65 67 66 66 68 69 72 73 75 74 74 75 74 77 77 78 76 72 70 71 74 69 61 63 60 60 62 62 61 60 64 66 72 68
77 75 72 69 64 65 66 66 64 62 60 64 67 66 68 72 73 75 76 76 76 77 76 74 74 74 71 70 63 62 59 59 60 63 63 64 61 57 63 67 67 75 77
70 63 60 58 57 58 61 59 62 59 63 69 70 68 70 72 74 75 74 75 77 75 72 71 67 67 65 60 59 59 62 66 63 62 59 62 63 66 67 73 78 83 85
39 31 31 38 56 57 61 56 58 65 71 67 60 62 66 68 66 67 69 71 67 69 66 61 61 56 59 61 62 65 68 69 64 64 63 64 69 73 78 81 86 80 78
23 25 18 40 46 44 45 47 47 46 51 57 58 59 61 62 63 65 64 66 66 55 53 53 55 60 59 64 66 60 60 60 66 64 69 73 75 78 83 86 75 75 76
33 27 27 37 52 44 45 45 50 52 54 59 56 57 56 55 57 62 62 54 47 49 57 61 63 64 69 70 64 58 62 66 70 71 76 77 83 87 80 74 76 77 81
41 44 56 42 49 44 45 55 47 50 53 50 54 57 53 61 54 46 47 50 57 61 60 65 63 63 62 60 65 68 72 73 72 79 84 85 84 76 77 77 76 77 75
41 46 54 55 53 56 54 56 56 53 58 56 49 50 54 58 57 57 56 63 54 62 63 58 65 68 72 71 71 72 75 78 80 83 84 80 75 78 77 78 76 75 72
46 57 49 51 63 69 69 68 71 73 68 64 52 48 50 51 54 58 61 60 57 63 66 61 68 69 75 75 76 79 76 80 84 86 79 76 76 74 72 73 74 74 70
60 57 57 64 71 76 69 70 71 68 71 65 61 56 60 59 59 62 66 66 68 55 64 66 76 72 78 75 78 85 88 89 84 82 79 72 82 73 75 69 68 68 70
64 59 63 70 68 71 73 73 68 65 66 67 65 51 56 64 64 66 60 61 63 69 68 71 75 78 83 82 82 86 88 86 88 84 82 78 72 66 65 65 65 68 70
61 71 64 72 70 65 66 73 69 61 62 62 66 64 66 61 49 55 58 59 61 66 70 75 78 80 83 86 93 92 85 81 85 83 71 68 63 65 65 67 70 73 75
57 71 70 68 73 70 72 68 67 62 64 61 61 63 63 58 60 65 65 68 68 74 78 78 82 85 84 87 83 82 83 80 72 66 65 64 67 70 72 74 76 77 78
46 55 65 69 68 69 71 68 71 74 71 63 59 58 66 61 61 65 68 71 74 74 75 78 77 78 83 80 79 76 72 69 67 66 68 70 71 74 77 81 85 83 82
41 41 44 36 57 74 66 71 67 60 71 67 61 63 64 64 70 71 70 75 78 76 78 77 77 78 78 75 74 70 68 71 71 72 75 77 79 81 83 85 85 83 84
34 37 34 36 37 39 45 62 71 65 68 66 67 65 66 70 66 69 66 69 72 72 76 75 74 76 72 71 72 74 76 75 77 79 82 84 86 87 86 87 85 87 88
31 35 35 31 36 35 36 38 44 50 57 60 64 65 68 70 67 65 71 70 72 72 72 72 71 69 71 73 75 77 78 78 81 86 90 91 92 92 92 91 91 90 90
29 31 31 37 36 36 40 45 47 47 57 61 64 60 60 63 70 67 66 68 67 66 66 65 67 70 73 76 79 81 83 85 87 88 87 87 89 91 91 92 93 94 95
36 39 42 46 46 44 44 45 47 47 49 54 59 59 61 65 64 65 68 65 64 62 64 68 70 74 76 78 80 80 81 83 87 88 87 88 90 93 96 96 98 101 103
35 30 35 38 35 43 43 44 47 49 52 53 53 55 58 60 59 60 61 60 60 64 67 71 74 75 75 76 78 80 81 83 83 84 90 93 96 98 101 104 107 108 106
42 39 35 30 31 39 40 39 42 47 49 48 50 54 53 53 55 55 59 62 65 68 69 72 75 77 80 80 82 83 82 82 85 87 92 95 97 103 107 108 107 109 111
44 41 42 46 42 43 46 48 53 58 58 56 53 50 50 50 54 59 63 67 69 70 72 73 75 79 80 79 80 82 86 90 93 93 93 99 101 102 105 112 114 117 120
47 48 48 48 53 52 53 55 53 45 49 49 46 48 51 54 59 66 69 69 69 72 73 75 76 76 78 81 85 88 90 91 97 100 100 98 98 102 109 116 120 122 119

GFSSE_250_spd_057.txt.gz
Wind_Speed
74 75 74 73 74 73 72 71 70 70 70 68 66 65 65 65 66 67 68 70 69 71 72 72 73 74 75 76 76 77 76 78 77 75 76 77 75 72 70 72 71 66 63
75 74 74 74 76 74 71 72 71 70 69 70 68 68 68 68 70 70 72 72 72 72 73 74 76 76 77 78 79 78 78 77 76 75 74 72 65 67 63 60 59 61 61
77 74 75 75 76 72 70 68 67 67 69 68 69 70 69 70 72 71 72 74 73 74 75 76 77 77 76 78 77 76 77 72 73 70 70 64 66 62 63 63 62 61 62
79 76 76 76 73 70 69 67 66 67 69 66 67 67 68 69 70 70 71 73 74 75 76 77 76 77 77 75 77 76 74 72 69 69 65 64 60 64 66 65 65 64 64
71 74 75 72 71 68 67 68 66 67 66 65 65 65 67 66 67 67 68 71 72 73 76 77 76 77 76 75 73 71 67 65 59 58 59 60 62 63 56 58 60 61 64
59 51 56 59 62 62 62 64 64 64 64 64 66 64 66 66 68 68 71 74 73 73 76 74 73 67 66 68 66 64 61 58 57 59 62 64 60 54 60 62 60 62 66
16 36 42 47 55 47 45 47 48 48 55 62 63 66 66 67 69 69 69 69 69 67 68 67 64 62 62 59 57 56 58 60 63 66 70 61 60 61 66 65 69 72 71
41 28 26 26 18 29 34 40 42 38 46 51 55 58 60 54 56 58 63 65 66 64 63 61 60 60 54 56 56 58 63 66 70 68 65 64 65 68 71 72 77 80 72
51 42 37 20 16 29 39 44 38 37 45 49 51 56 53 56 58 60 59 60 63 60 64 63 57 55 59 60 63 66 70 68 69 62 65 67 73 76 79 80 78 72 77
41 41 37 32 44 37 51 55 46 38 48 51 49 56 62 64 65 66 65 63 56 49 46 52 58 59 60 62 68 72 69 71 63 66 69 71 76 80 82 79 74 71 68
49 42 47 57 52 53 65 65 56 52 54 55 53 56 52 53 56 61 60 54 58 59 53 58 56 60 69 67 66 67 63 64 70 72 76 78 81 85 84 71 72 70 66
49 49 54 62 64 63 68 73 65 63 63 60 54 57 58 57 58 59 62 56 55 59 60 63 62 63 67 65 65 71 75 73 73 78 80 82 77 76 76 72 67 64 62
45 52 59 66 70 68 71 77 70 70 73 68 60 65 63 59 57 57 64 67 67 58 62 63 54 56 63 70 70 68 73 73 73 75 74 71 69 66 64 67 65 65 61
35 52 68 70 73 72 77 80 75 74 72 75 71 68 71 70 67 67 63 65 64 72 65 61 61 63 66 70 73 74 75 77 76 78 71 69 69 66 62 64 62 64 66
43 56 64 74 76 75 74 73 74 75 75 74 71 71 63 66 65 69 73 72 66 59 63 67 71 76 77 77 78 79 79 76 73 74 74 69 67 67 66 65 67 71 71
50 58 62 77 75 73 77 76 75 69 70 66 66 71 72 68 72 60 62 60 60 61 67 71 76 76 77 76 77 75 77 76 78 72 69 69 70 71 72 72 76 75 78
39 51 56 69 73 75 68 69 71 67 73 67 69 69 65 58 53 54 56 59 63 69 69 74 74 76 76 74 76 76 77 73 69 68 71 72 75 76 78 78 79 81 83
36 48 64 66 65 66 70 72 75 73 72 71 69 72 70 75 70 73 68 73 67 73 71 71 67 74 75 77 74 70 68 67 69 72 75 78 80 81 81 82 83 84 84
36 45 48 56 56 67 68 55 69 79 79 73 66 65 63 65 67 68 64 68 72 73 76 73 75 75 78 75 69 67 67 70 73 76 78 78 78 79 79 80 81 81 81
32 32 36 41 50 51 61 64 52 61 59 48 48 49 55 55 62 66 65 68 67 67 70 72 73 69 70 67 67 69 72 74 75 77 78 80 82 84 85 85 83 82 85
30 28 25 30 28 36 37 45 44 45 43 45 49 50 56 56 58 60 64 68 71 72 72 73 68 66 65 68 70 72 74 76 79 82 84 86 85 84 83 83 86 89 92
29 28 26 30 31 31 36 40 44 48 49 49 48 49 53 53 56 60 64 66 67 69 67 66 63 65 69 72 74 75 76 81 83 83 83 83 85 88 90 91 92 95 97
36 34 37 38 41 38 44 41 45 49 46 48 48 50 53 57 58 59 61 62 64 62 61 61 65 69 72 73 75 79 80 78 78 83 87 88 89 91 92 94 99 100 100
39 40 42 38 39 39 35 31 32 34 42 43 45 46 53 57 57 61 58 56 56 59 62 67 70 71 74 76 77 77 77 81 84 85 88 91 91 94 97 103 105 106 107
39 38 38 40 42 43 44 45 48 53 53 54 51 55 60 59 56 51 53 56 60 65 69 73 73 73 74 75 75 77 81 86 90 91 90 91 94 98 104 107 109 113 116
34 35 35 42 43 45 49 52 53 52 53 53 53 54 49 49 49 53 57 62 67 73 76 75 75 75 73 72 77 83 89 92 93 93 93 99 101 105 108 110 116 116 114

GFSSE_250_spd_060.txt.gz
Wind_Speed
80 79 78 78 78 76 76 74 73 73 71 70 69 69 68 69 69 70 68 70 69 71 72 72 71 71 72 73 74 75 78 78 81 79 81 82 82 79 80 78 76 72 69
78 78 77 77 75 76 76 76 74 72 71 70 68 69 70 71 71 71 72 73 73 74 75 75 73 73 74 75 76 78 79 80 82 82 82 81 78 77 77 74 65 64 61
76 77 76 77 76 77 77 79 76 73 70 68 68 68 71 71 73 73 74 74 76 77 77 76 76 74 74 75 78 79 80 81 81 79 80 81 79 76 69 64 59 62 64
72 74 76 78 77 79 78 76 74 72 71 69 69 72 71 72 74 75 73 73 74 75 77 76 73 73 74 76 77 75 78 80 79 77 76 74 70 64 62 61 61 64 64
71 61 63 75 75 76 75 75 74 72 71 70 73 71 74 74 75 74 74 73 72 73 74 72 71 74 73 75 77 75 75 73 67 66 68 60 57 60 61 63 62 57 55
41 56 41 46 60 75 75 75 73 72 71 71 71 71 69 69 71 72 72 74 73 75 74 69 69 73 73 73 72 68 68 67 60 61 54 53 58 63 68 67 65 61 61
12 21 41 48 57 62 64 68 69 64 59 60 61 61 64 68 67 66 67 68 68 70 68 69 69 72 71 68 65 63 61 58 57 58 59 65 66 67 63 58 60 60 64
39 47 27 38 36 37 41 44 39 34 32 34 43 49 50 54 53 57 58 54 57 61 62 64 66 67 66 67 60 63 56 57 64 66 68 66 69 67 62 63 66 67 70
58 58 49 41 28 14 17 23 23 29 32 37 42 45 49 51 54 52 49 53 54 57 61 62 65 65 65 60 57 57 61 64 69 71 65 71 70 66 68 67 73 71 69
72 60 49 51 32 28 37 29 37 30 45 50 49 48 52 52 52 54 55 58 61 63 65 66 68 64 62 59 62 67 68 63 72 64 72 67 66 67 68 73 68 68 70
78 62 60 54 45 48 48 51 49 55 55 66 54 52 56 55 53 51 55 59 64 63 58 57 54 55 55 62 59 62 67 71 64 65 63 66 72 75 77 73 74 71 70
72 64 62 62 53 53 51 58 68 60 52 62 58 57 55 59 58 54 54 51 51 56 55 55 52 55 60 64 70 66 66 67 68 69 75 71 76 78 75 75 70 72 69
69 62 54 54 55 56 61 68 67 64 61 60 62 66 64 61 58 58 61 61 60 61 57 59 60 72 71 75 74 61 67 69 75 74 77 76 72 71 72 75 69 65 64
71 66 70 51 56 62 68 69 69 70 67 68 66 64 67 69 69 66 60 64 64 65 72 66 65 68 69 63 65 71 72 74 73 73 74 74 73 68 66 68 66 64 67
53 56 54 62 64 64 70 72 67 73 69 71 71 68 66 63 63 65 69 67 69 63 68 71 64 58 64 62 68 71 70 70 75 74 75 72 72 69 66 68 67 69 71
49 47 53 67 67 66 71 71 66 72 70 66 63 70 71 73 67 70 67 69 73 72 54 65 59 67 67 70 70 73 76 76 76 78 78 72 70 67 67 69 69 71 73
42 47 55 64 71 70 70 73 71 71 71 75 78 71 69 71 73 69 75 71 75 71 70 72 70 73 74 73 72 72 71 75 77 74 68 68 67 69 70 71 73 74 77
48 50 54 64 68 73 75 78 72 78 80 76 73 71 70 71 71 72 65 64 69 68 67 72 77 70 74 71 68 74 77 78 70 70 70 70 72 71 73 77 79 81 82
30 38 48 55 55 65 73 82 78 76 72 73 73 71 75 72 70 66 69 70 65 74 67 71 73 71 71 75 79 75 75 69 70 71 72 74 76 78 80 81 83 80 80
28 27 35 44 45 41 42 53 65 78 77 72 73 75 72 68 63 66 74 67 68 62 65 66 67 68 72 71 71 71 69 69 71 73 75 76 79 82 84 83 81 84 86
30 27 28 28 37 48 46 44 52 53 67 55 72 68 59 61 62 66 66 60 66 68 70 65 67 68 69 70 69 66 69 73 75 76 79 81 81 81 82 84 88 92 92
32 32 32 31 31 30 32 35 42 48 47 43 50 51 53 57 62 62 60 62 64 63 63 68 70 70 65 64 65 70 75 76 78 80 82 82 81 83 86 90 93 96 96
32 34 33 32 32 30 34 34 36 39 42 47 49 49 51 50 52 58 59 59 60 63 66 69 67 62 62 66 71 77 78 79 80 80 81 83 85 89 92 96 97 98 99
42 37 38 38 36 36 39 40 42 42 46 48 44 44 46 48 54 59 56 60 64 66 64 64 60 64 67 70 76 79 80 80 82 82 83 84 91 96 98 100 99 99 101
36 36 39 43 42 43 43 43 46 48 46 46 51 53 54 55 58 59 60 63 64 62 60 59 65 68 73 77 78 79 80 80 81 84 89 95 95 95 97 99 102 103 106
32 36 37 39 42 40 40 41 44 45 47 50 53 52 52 54 56 57 58 60 59 58 61 65 69 73 75 79 80 81 82 82 84 87 92 96 99 100 99 103 104 108 111

GFSSE_250_spd_063.txt.gz
Wind_Speed
82 85 84 82 82 82 79 77 77 77 77 76 74 73 72 72 71 70 70 70 70 69 70 72 73 74 73 74 74 74 77 77 77 78 79 80 82 83 82 81 81 79 77
78 83 82 84 83 82 81 80 80 79 78 78 77 75 74 73 74 74 74 72 73 73 74 76 76 76 76 77 76 76 76 78 78 79 79 78 81 79 80 79 78 76 71
74 80 82 79 80 80 78 80 79 78 77 77 78 76 76 75 76 76 76 76 75 75 76 77 79 78 78 79 76 78 78 78 79 78 78 77 77 79 77 71 69 61 61
72 69 73 76 76 74 76 79 78 77 76 77 77 78 78 77 78 77 79 78 77 78 77 79 79 80 79 78 77 76 75 76 76 77 77 76 74 72 71 71 65 58 61
54 54 58 68 69 69 73 74 75 75 76 78 79 79 80 78 77 79 80 79 80 79 79 79 81 78 78 74 76 73 76 75 74 72 71 69 68 69 65 57 61 66 63
40 25 23 35 55 56 56 66 71 76 78 77 78 79 78 77 77 78 79 79 78 80 75 74 78 76 71 66 70 72 72 71 70 68 67 66 63 58 60 65 67 66 68
35 21 36 33 34 40 54 50 55 61 69 72 70 70 68 70 74 74 74 74 74 75 74 67 68 67 62 65 68 68 66 65 65 67 66 61 63 68 69 68 70 63 59
46 40 38 39 38 40 43 47 48 55 58 63 61 58 57 54 55 57 59 58 57 57 55 56 58 56 59 61 60 63 61 66 68 66 60 65 68 70 67 69 63 62 64
56 49 42 53 52 52 41 26 27 31 33 37 40 39 39 44 46 45 52 50 52 51 53 53 57 59 59 62 61 62 66 64 59 64 65 68 70 72 64 64 65 69 74
60 57 47 51 52 50 52 28 34 31 26 26 26 29 44 46 51 52 54 56 56 54 53 59 58 59 61 65 64 62 56 56 59 64 71 79 81 70 66 67 71 71 72
61 62 58 56 60 66 54 45 48 55 53 43 34 35 43 39 42 48 54 54 61 58 63 60 63 66 65 58 61 57 57 67 67 75 82 72 70 67 70 72 66 72 73
70 70 60 65 64 63 56 50 50 52 54 48 42 43 47 37 43 42 46 51 55 54 57 63 59 64 57 60 60 62 71 71 77 72 61 71 70 74 72 71 69 72 69
72 69 63 67 63 62 53 54 52 55 54 55 58 51 53 54 52 60 59 54 52 59 68 67 62 60 68 68 65 69 68 70 64 63 67 66 70 71 74 75 75 77 77
74 70 65 66 62 59 59 58 55 53 61 60 61 62 55 58 63 64 65 68 63 64 64 63 61 63 67 70 73 72 68 65 66 68 68 74 76 76 72 74 79 79 78
78 77 68 67 63 57 62 58 58 58 62 62 65 63 65 62 65 58 59 57 53 54 60 63 62 68 68 70 67 64 67 75 73 77 74 71 72 76 79 79 73 73 71
83 81 77 72 69 66 63 59 60 62 64 66 66 71 68 67 66 63 67 60 59 58 64 68 67 63 67 70 72 71 75 78 79 78 71 76 79 78 74 73 73 72 71
80 78 74 79 69 62 66 63 60 67 68 65 72 67 69 71 68 71 67 60 64 65 62 62 76 71 68 68 71 76 81 75 70 77 77 72 74 74 77 75 73 69 72
64 63 70 73 70 69 65 69 72 68 67 65 73 67 69 74 69 64 64 65 70 69 70 74 71 70 73 73 75 83 72 76 74 76 74 78 75 72 71 75 75 75 77
53 58 66 72 68 68 65 73 74 76 77 71 74 67 72 73 75 73 72 71 70 77 75 76 64 71 69 80 83 79 76 72 72 76 77 74 73 76 75 73 78 79 81
42 45 48 54 63 69 68 67 74 75 82 77 74 73 72 75 81 84 80 79 79 76 71 69 79 79 74 76 72 73 72 76 73 72 71 73 77 79 80 82 82 82 82
37 35 39 43 45 48 51 47 42 38 45 61 55 63 55 64 67 73 70 70 63 61 66 72 74 75 69 64 66 72 74 72 73 72 73 76 78 80 82 84 85 86 88
32 34 32 37 33 34 38 50 52 47 46 42 46 45 46 43 51 56 63 64 69 58 62 67 65 66 66 67 71 75 74 71 66 71 78 78 81 84 84 83 84 86 90
30 31 32 33 34 31 31 31 35 36 39 40 42 43 46 52 52 56 60 58 57 59 65 66 65 68 71 72 71 73 70 71 75 76 73 80 84 85 85 87 89 90 92
31 37 35 35 32 34 33 36 35 38 41 43 44 48 49 51 53 56 59 65 67 64 67 69 69 70 71 67 71 71 73 76 78 82 88 86 85 90 89 91 94 95 96
43 45 43 41 40 38 42 44 41 38 43 46 49 49 53 57 57 59 59 61 64 65 68 70 68 68 69 70 71 72 78 79 81 86 91 99 100 96 92 90 94 98 101
39 43 45 45 44 44 42 45 47 47 47 49 50 49 51 54 54 56 58 60 62 64 64 64 65 67 71 73 74 76 80 80 86 90 94 95 97 97 97 98 101 102 103

GFSSE_250_spd_069.txt.gz
Wind_Speed
42 41 46 43 50 55 56 73 79 83 83 85 83 82 82 79 77 75 74 74 75 73 72 72 72 71 71 71 72 73 71 71 73 74 74 76 77 76 77 78 79 78 76
29 32 11 28 40 52 54 56 66 79 83 85 86 85 84 82 81 79 78 77 76 77 76 75 75 74 74 76 76 76 75 75 75 76 77 78 78 78 78 77 76 75 73
36 24 18 31 48 49 49 53 50 59 76 85 86 84 84 84 84 83 82 80 79 77 77 77 77 77 77 78 79 78 77 77 78 78 79 78 78 76 76 75 74 74 72
49 40 47 34 41 44 44 51 55 62 65 77 79 79 80 80 81 82 82 81 80 80 79 79 79 80 80 81 81 80 79 78 78 80 79 77 77 75 76 73 72 68 67
52 53 55 47 30 36 41 52 53 48 56 64 71 73 74 77 78 80 81 81 81 81 80 80 81 81 82 83 80 81 80 78 80 77 77 74 75 74 73 68 64 61 59
54 58 56 33 23 23 14 20 24 26 36 46 56 63 66 68 68 74 77 79 80 78 80 82 82 82 82 81 80 79 79 80 79 76 74 74 70 65 61 59 60 61 60
52 46 47 30 9 34 25 28 31 22 20 24 36 49 58 64 61 66 68 73 74 75 77 77 81 80 79 77 75 76 74 66 68 65 63 58 55 55 57 58 62 60 59
52 40 56 51 55 48 39 53 43 36 38 40 32 32 42 49 54 60 62 58 60 67 70 73 74 75 75 72 70 68 72 64 58 56 57 56 56 62 64 63 60 65 66
52 42 56 54 34 35 51 40 44 41 42 39 40 37 45 44 44 44 53 58 52 51 59 61 62 64 61 61 60 57 60 59 57 57 58 63 65 62 62 64 67 68 72
55 55 59 56 48 53 60 47 34 45 38 41 45 45 49 35 45 39 44 43 41 42 47 52 53 59 58 55 58 55 59 61 60 60 63 62 61 65 69 69 70 74 71
54 55 62 58 55 62 65 61 51 52 48 46 50 47 45 28 29 36 33 35 39 43 49 50 51 49 50 52 51 49 56 56 57 57 58 57 63 73 72 69 75 69 67
61 66 60 60 55 62 64 68 66 58 49 50 51 56 53 33 31 34 31 37 35 39 49 46 48 49 51 51 54 53 55 54 54 55 59 70 69 69 70 70 67 68 67
67 64 61 64 57 68 73 73 64 59 60 59 64 67 55 44 34 34 41 44 41 47 42 44 47 43 50 52 56 59 58 62 61 64 66 67 71 68 68 68 69 71 76
65 65 62 63 64 72 64 57 64 64 54 61 60 60 61 57 44 49 41 44 47 47 49 48 49 55 57 60 61 58 64 65 70 66 68 69 67 65 73 76 72 75 74
71 74 71 65 62 73 73 61 63 61 69 60 65 64 61 64 57 55 52 50 52 53 51 53 56 61 62 64 67 69 71 69 66 68 70 68 69 74 78 73 73 80 74
64 80 80 74 67 64 76 71 67 68 63 61 59 59 61 61 64 64 57 53 51 57 57 57 62 64 67 68 69 66 65 65 65 69 68 71 79 77 78 75 78 77 77
58 70 83 81 78 70 74 76 74 73 64 60 60 61 59 59 61 58 56 57 57 56 58 59 61 61 66 68 70 65 68 67 71 71 72 79 74 76 74 76 76 75 76
57 58 70 74 65 67 72 75 74 70 66 63 61 62 63 61 59 57 60 59 61 62 63 64 63 68 69 68 70 67 66 70 77 75 74 76 75 76 72 76 78 78 81
60 61 62 67 63 62 66 66 64 62 60 66 60 65 64 63 61 61 60 59 62 62 63 68 68 68 66 63 66 71 77 77 77 75 71 77 77 74 76 77 78 79 77
56 59 63 64 71 64 65 66 63 63 63 68 67 61 66 65 65 65 65 70 68 71 68 66 66 68 73 72 74 75 74 78 77 75 75 76 71 73 77 77 76 79 76
58 60 63 64 62 67 67 65 64 64 60 64 69 67 65 65 69 70 73 72 73 67 70 67 63 62 70 72 69 69 69 70 74 72 73 77 80 81 79 76 76 77 77
55 55 56 57 59 61 69 67 66 66 68 65 68 69 72 64 67 56 53 58 61 56 57 58 58 60 61 63 66 65 70 70 78 77 76 79 79 76 75 75 77 80 80
55 52 52 54 55 57 58 64 64 65 68 68 68 63 62 60 61 59 63 61 58 62 58 60 62 65 68 71 73 74 78 74 77 80 79 78 74 76 79 79 80 80 84
55 56 54 56 53 54 55 58 65 57 57 57 53 55 51 46 41 47 51 54 57 60 65 66 72 72 74 74 73 76 78 80 84 79 73 75 75 78 81 82 83 87 89
49 55 59 58 54 47 46 47 50 52 46 45 44 46 42 42 48 53 54 54 60 61 63 66 68 73 74 75 75 73 75 76 73 75 77 79 78 80 82 85 86 88 91
33 36 36 39 41 44 43 45 45 40 44 46 50 52 51 53 56 55 59 59 62 64 68 69 70 74 78 75 72 71 73 74 77 78 78 80 86 90 88 92 92 93 96

GFSSE_250_spd_072.txt.gz
Wind_Speed
53 59 57 54 60 63 68 60 56 61 61 68 77 83 82 83 82 80 78 77 76 75 74 73 74 73 75 74 74 72 70 70 69 69 69 71 73 73 72 72 75 76 78
49 50 52 50 49 48 46 42 42 49 49 43 52 68 76 77 79 80 80 81 80 79 77 75 76 77 77 77 77 75 74 74 74 73 72 73 76 75 76 76 77 75 76
38 41 46 37 34 31 22 19 25 39 47 51 51 53 59 73 75 76 82 82 84 81 80 78 78 79 79 79 79 78 76 78 76 77 76 76 77 77 79 78 77 76 75
28 28 33 36 36 27 17 25 27 32 39 42 46 46 49 56 65 73 75 79 81 82 84 84 83 81 80 81 80 79 79 78 78 77 77 78 77 78 76 78 77 73 71
37 42 43 39 34 31 35 23 28 27 32 36 42 50 51 48 56 62 71 74 75 78 80 82 82 81 81 81 81 80 79 78 79 78 75 75 74 73 72 70 69 66 63
46 43 42 31 20 26 26 20 24 18 20 24 31 34 36 45 47 53 64 72 72 74 77 77 75 76 77 79 79 80 77 77 76 75 71 71 69 69 70 65 64 59 57
52 52 42 33 26 14 16 19 22 33 33 31 29 29 22 36 43 51 61 65 66 66 66 68 71 72 78 77 72 73 75 74 73 74 74 69 67 61 63 60 57 58 59
59 56 53 48 30 26 17 38 31 55 36 44 40 36 38 35 28 33 39 46 51 58 61 55 61 57 63 68 69 66 69 71 69 67 65 58 58 59 58 58 56 58 57
58 58 68 58 53 47 45 37 38 57 47 47 37 37 41 34 34 33 35 36 40 43 48 52 54 52 54 60 61 61 57 57 56 54 55 59 61 58 56 56 59 57 60
62 66 70 62 60 58 48 54 52 41 60 56 48 44 38 37 40 40 42 41 41 36 40 46 48 49 42 46 49 48 48 47 52 54 54 54 55 59 59 62 61 65 62
69 67 67 66 58 57 57 58 48 45 55 54 51 40 41 44 43 38 30 29 39 38 36 41 39 38 32 36 48 50 48 52 52 49 53 57 59 60 65 63 65 69 67
70 73 61 64 58 52 46 50 55 65 61 56 46 41 37 35 33 27 31 31 31 36 38 39 41 41 41 41 42 43 47 50 51 53 54 59 61 65 64 64 69 70 69
72 63 64 71 59 56 52 55 68 62 62 56 54 49 42 46 54 43 36 31 33 38 43 42 41 42 45 40 44 45 49 54 55 58 61 63 65 67 66 71 71 67 68
74 64 60 64 65 65 57 55 63 58 57 60 49 49 53 53 57 51 47 43 40 42 49 50 48 45 47 49 50 51 54 57 60 62 63 66 66 67 74 68 66 72 72
75 59 60 67 69 68 62 53 56 48 55 60 58 54 56 61 59 52 57 59 54 52 51 52 54 53 51 53 57 56 58 60 63 64 68 69 70 75 68 70 73 74 81
67 65 64 68 69 65 63 63 60 52 57 53 58 58 56 44 51 56 57 55 60 63 65 61 62 58 55 52 55 58 60 61 66 69 69 70 70 69 73 76 78 83 81
56 64 71 67 70 67 66 68 67 62 56 53 57 58 58 59 64 63 60 58 61 60 64 65 66 65 61 61 63 65 69 69 71 71 72 72 69 72 75 82 83 85 81
46 71 66 72 69 67 67 66 66 64 62 58 57 57 54 56 52 55 54 66 66 67 68 70 67 67 68 67 69 72 74 75 74 75 73 73 74 82 81 82 83 79 83
47 40 72 78 78 72 70 66 68 65 64 64 61 66 66 65 57 56 54 56 61 62 64 67 70 73 72 75 75 77 74 76 73 73 76 79 81 84 83 86 85 83 85
41 39 60 81 82 81 74 71 71 69 67 64 67 63 62 70 57 58 61 62 64 65 68 70 75 78 77 80 78 75 73 70 72 72 76 77 73 76 80 84 87 90 89
42 45 49 56 82 81 81 72 71 71 71 71 67 67 66 66 64 59 68 67 66 66 69 73 74 66 65 68 67 68 69 68 67 67 72 74 79 81 85 84 85 85 86
46 50 52 56 55 56 71 72 78 69 62 65 70 72 70 68 64 65 69 72 72 70 63 70 64 63 63 63 66 67 70 72 75 75 79 82 79 81 81 79 80 76 75
46 48 56 59 58 55 55 60 66 72 66 64 61 69 70 69 75 78 71 68 64 68 63 64 67 67 69 71 74 76 73 74 79 80 78 79 75 76 75 74 74 76 78
37 47 45 46 52 48 50 53 53 58 59 57 61 58 65 62 65 58 69 71 64 64 66 62 61 63 65 67 69 71 71 75 74 76 79 77 81 77 72 75 77 79 82
20 28 33 43 46 50 52 48 48 49 52 55 57 54 57 52 57 52 58 57 61 63 64 65 62 64 66 67 68 71 71 74 77 78 77 74 76 78 77 79 81 84 87
25 29 33 32 37 41 40 38 43 43 41 44 46 48 53 51 52 55 60 61 63 67 65 64 65 65 65 65 69 70 72 73 72 70 71 75 78 82 84 85 88 90 90

GFSSE_250_spd_075.txt.gz
Wind_Speed
64 63 61 61 63 65 72 74 73 73 76 76 76 70 67 72 73 78 79 79 78 77 75 75 78 79 78 78 77 78 76 74 73 71 70 68 68 69 69 71 71 72 73
61 57 56 56 56 59 66 73 73 70 64 60 53 54 51 49 60 65 71 77 79 83 85 84 80 82 80 80 80 80 80 78 75 73 74 72 72 72 72 73 74 75 75
51 55 51 48 40 48 56 61 61 61 51 46 49 45 44 42 44 48 60 74 79 76 78 82 82 82 82 82 82 83 82 79 77 75 75 75 75 75 75 76 76 77 77
48 47 37 29 21 31 44 47 34 39 32 25 28 37 40 37 35 41 48 47 57 70 75 79 78 80 82 82 83 84 81 80 78 77 77 76 77 76 75 76 76 73 75
47 32 37 29 36 40 33 32 31 38 24 14 19 26 31 38 42 46 47 48 53 56 63 70 78 79 81 80 81 83 81 81 81 80 79 77 76 76 74 73 72 72 72
41 39 50 45 56 45 39 43 44 29 16 15 15 17 24 19 32 38 41 47 49 54 61 63 70 72 71 72 75 78 77 75 76 76 74 75 74 70 70 71 68 70 63
39 48 61 58 49 40 43 40 42 36 25 19 23 20 20 24 25 28 26 31 39 47 50 54 59 63 68 68 65 63 62 64 63 63 66 67 67 59 60 64 61 55 55
39 51 63 51 36 48 44 36 22 28 27 31 30 28 25 28 30 30 31 30 28 30 33 40 43 50 54 55 59 54 57 58 58 54 54 53 53 57 53 51 53 53 52
40 54 56 49 46 46 42 33 24 26 36 38 39 29 31 34 32 25 31 27 21 24 25 30 36 42 46 46 50 50 48 51 49 46 46 48 48 50 52 52 47 50 54
45 57 57 60 57 56 46 38 39 32 49 57 46 36 33 40 37 35 37 28 29 34 33 32 34 35 36 39 40 44 41 40 43 41 43 45 46 48 46 50 53 56 61
52 64 64 66 59 54 48 47 44 40 49 49 55 43 47 44 44 41 33 32 35 37 35 35 40 38 36 35 36 38 39 41 42 41 42 43 45 47 52 53 58 62 66
53 65 63 67 61 56 53 48 50 49 49 54 45 38 45 43 43 37 34 28 18 34 26 27 33 37 33 31 36 37 42 43 44 45 47 48 51 54 57 59 64 66 74
55 68 63 67 63 61 53 49 57 50 51 52 52 47 49 49 41 36 37 35 35 27 27 27 32 38 37 39 39 39 42 45 48 48 51 56 60 63 62 64 69 73 73
51 63 63 66 65 59 61 47 48 47 49 57 58 49 58 50 48 47 43 43 41 39 32 36 38 44 45 45 44 47 51 52 53 56 57 60 61 66 68 72 75 77 79
58 62 63 67 63 59 58 52 53 55 49 53 52 56 47 47 48 51 53 53 49 46 47 48 48 55 58 57 58 62 62 61 62 65 66 65 67 71 75 79 81 80 76
65 66 62 57 62 61 59 53 53 53 53 50 40 41 50 55 51 46 42 43 44 49 50 50 50 52 59 60 60 63 67 68 66 68 69 74 78 76 80 83 80 78 77
59 63 62 57 54 58 59 57 56 54 54 53 45 45 42 47 44 52 51 51 54 51 49 51 51 55 57 60 64 69 72 70 71 76 80 80 80 83 83 80 76 77 78
56 64 66 55 57 54 60 61 63 58 53 53 50 46 48 52 48 50 50 57 56 57 51 61 52 56 62 67 71 70 73 75 74 77 80 81 81 78 77 76 76 77 81
48 61 65 64 58 59 59 66 67 57 59 56 61 56 52 48 53 57 53 56 51 56 54 54 52 57 60 64 64 66 67 71 75 78 78 76 78 75 76 78 80 78 78
43 52 65 62 68 64 61 63 66 61 59 62 64 64 65 63 63 60 57 51 53 46 50 53 58 59 60 64 67 67 71 78 72 71 72 72 70 72 76 75 76 79 78
41 52 59 62 76 63 64 62 65 66 63 64 65 68 72 70 71 68 65 62 60 67 68 66 65 68 71 77 72 66 73 75 71 68 71 70 71 77 78 79 77 77 81
28 42 52 54 67 64 68 68 67 67 65 62 67 68 67 67 64 60 70 66 65 68 68 68 72 70 68 67 67 64 63 66 67 70 71 74 77 76 79 80 80 82 82
20 42 45 47 42 55 62 69 71 76 72 72 70 67 69 69 71 71 64 59 62 67 71 64 70 65 59 58 64 60 61 64 67 71 73 72 71 72 75 76 76 76 77
19 25 43 50 50 46 53 63 72 71 65 59 62 66 68 63 63 55 64 62 62 59 65 59 56 57 58 57 61 63 66 64 69 67 67 67 65 67 73 75 78 80 81
20 25 30 38 49 50 52 56 59 60 61 64 59 52 60 65 60 63 62 60 57 65 62 60 68 61 65 65 65 63 62 59 60 61 56 59 65 72 76 81 84 86 85
22 24 30 29 39 44 49 52 54 58 57 58 59 61 56 57 55 53 58 60 56 60 60 62 69 67 63 60 60 59 58 56 53 54 61 65 73 82 84 86 88 86 86

GFSSE_250_spd_078.txt.gz
Wind_Speed
75 75 77 71 68 61 60 60 59 69 69 69 78 77 78 78 76 73 70 72 77 83 81 75 76 75 75 76 78 76 75 74 75 75 73 74 72 70 69 69 68 68 69
71 69 64 62 57 52 52 55 60 62 69 67 74 75 73 75 71 67 67 67 70 69 74 76 81 82 78 78 76 78 76 75 78 78 78 79 76 73 73 72 70 70 71
60 58 55 51 50 45 40 43 56 65 69 71 70 72 70 64 56 53 51 62 69 68 71 74 73 78 80 81 80 83 83 83 81 79 80 78 77 75 74 73 71 71 72
57 49 48 48 48 44 32 32 37 53 55 65 73 69 66 54 49 41 46 48 52 51 53 60 64 70 75 79 79 84 85 84 80 79 79 78 78 76 76 74 74 71 70
54 49 45 50 50 45 32 43 23 35 40 43 49 49 46 40 38 34 40 47 48 47 47 50 56 62 69 77 81 78 79 77 76 77 74 74 73 72 72 71 66 62 60
47 44 43 48 42 41 40 50 35 26 29 38 36 39 39 34 28 25 28 36 42 45 48 49 53 52 50 56 61 73 75 71 70 71 67 64 68 64 64 56 58 57 56
40 41 37 39 40 51 54 39 32 37 34 32 35 31 30 27 26 14 16 17 19 21 31 39 42 42 44 42 44 48 49 52 54 56 58 57 53 54 58 56 53 53 50
36 34 33 41 46 54 51 41 45 38 42 39 39 30 24 21 19 16 20 21 19 23 21 25 27 21 26 26 28 33 37 39 43 47 48 48 50 50 52 51 49 45 45
28 32 38 47 53 59 49 52 43 41 50 42 42 33 26 22 19 23 24 26 25 25 23 17 17 16 17 21 24 26 31 34 37 39 42 40 41 42 41 41 41 44 44
26 31 44 55 64 62 55 54 45 52 48 45 39 37 34 16 20 24 26 27 30 30 21 24 27 28 29 25 24 22 22 24 30 31 33 36 37 41 40 42 42 40 48
31 34 42 56 53 61 52 52 50 46 48 44 40 38 28 23 28 24 27 30 28 25 20 24 32 38 28 21 21 21 21 25 30 29 32 36 41 43 46 46 47 53 60
32 35 40 48 54 54 55 56 49 44 49 47 40 39 36 26 30 27 31 35 29 27 17 23 36 37 29 20 22 22 23 25 29 31 35 40 46 47 47 52 58 63 64
37 37 43 52 61 56 61 59 50 49 44 44 42 38 37 36 38 40 33 24 23 18 30 32 28 30 29 25 27 29 32 35 37 39 43 47 48 54 58 60 64 68 68
40 39 41 52 60 59 62 56 53 49 40 41 34 42 41 33 35 38 43 39 29 34 39 37 32 31 32 36 33 41 40 45 45 49 51 53 57 64 64 68 66 67 68
35 40 38 54 60 61 61 53 50 44 48 42 41 40 39 41 45 40 44 47 39 42 45 46 47 44 41 45 46 48 49 50 53 54 57 62 68 68 68 71 68 71 72
30 42 44 45 62 64 61 51 49 43 42 47 40 39 43 42 50 55 56 51 48 46 51 51 53 49 47 51 49 49 53 56 54 61 63 61 64 63 67 65 68 68 70
31 45 43 44 56 66 57 56 51 45 44 49 39 43 53 51 54 52 51 55 55 46 43 43 44 46 49 51 51 54 56 58 58 63 66 63 68 63 67 67 63 72 71
26 36 43 47 48 65 61 55 51 50 47 50 53 49 44 51 48 52 50 46 42 45 46 50 53 58 54 51 50 56 60 63 55 54 60 63 65 69 71 71 67 64 65
29 29 41 50 45 62 64 60 57 50 52 50 54 60 53 51 50 45 58 54 57 55 54 53 54 47 49 51 45 48 53 53 59 61 62 63 63 68 64 63 63 65 67
35 28 35 45 56 63 60 56 58 61 55 55 55 58 58 55 50 57 54 57 56 55 57 55 51 50 51 55 61 57 60 64 64 64 61 64 65 61 62 65 68 71 72
29 34 28 39 53 60 56 57 53 57 59 58 54 59 60 58 58 57 56 60 65 66 61 60 62 59 59 65 61 62 65 68 58 58 57 60 58 59 63 68 69 72 69
22 32 27 35 48 56 59 53 54 55 57 58 54 60 59 58 64 64 66 66 63 64 67 72 74 73 62 57 55 54 56 56 60 57 59 59 62 65 68 67 65 63 61
20 21 22 28 40 50 50 49 51 54 62 60 62 59 61 63 66 66 62 62 66 73 72 66 57 55 53 59 52 53 53 58 57 62 61 63 62 60 61 62 62 63 66
14 18 25 25 31 39 38 43 47 46 51 57 63 63 62 61 63 62 62 64 65 61 60 57 55 52 52 52 53 55 57 56 57 58 59 60 58 58 54 55 59 66 72
14 16 21 24 27 30 33 40 39 36 43 52 56 57 57 58 62 62 56 56 53 55 53 57 55 53 57 57 56 56 57 56 53 53 52 51 53 56 61 66 71 75 78
15 19 23 23 25 29 36 38 36 34 37 47 55 56 58 60 58 54 56 54 57 52 51 58 58 57 59 62 61 58 52 54 46 44 44 50 55 64 69 72 76 80 84

GFSSE_250_spd_081.txt.gz
Wind_Speed
72 74 77 75 73 74 72 70 68 66 67 71 72 75 78 83 78 83 83 82 80 82 79 77 78 79 80 78 75 78 77 77 75 75 75 72 73 72 70 68 69 69 69
66 68 69 70 66 63 59 59 58 60 62 62 65 66 70 74 66 74 76 79 78 70 65 62 63 64 66 74 81 82 80 78 77 75 76 74 73 72 72 72 72 72 73
64 65 64 61 56 52 51 53 51 53 56 58 63 66 62 67 69 69 70 71 64 59 60 60 61 68 70 72 73 73 81 83 82 83 79 77 75 72 74 74 74 76 76
63 60 60 57 52 50 50 47 42 41 37 45 56 61 59 63 67 69 65 58 47 47 47 51 57 65 67 73 75 74 74 80 83 84 81 78 77 77 77 78 77 75 72
57 54 51 52 46 50 49 47 40 34 15 47 40 54 57 60 67 61 56 44 41 39 44 50 53 58 67 71 78 78 73 65 72 72 73 74 75 75 71 73 69 66 63
55 50 51 55 52 47 46 47 44 42 25 34 49 46 51 55 65 59 54 42 39 40 43 48 51 48 57 56 47 48 48 48 50 53 59 61 64 68 66 59 61 59 56
54 47 39 46 47 46 46 44 50 43 47 51 49 33 40 40 49 52 43 41 36 39 38 39 42 42 43 44 42 42 44 47 44 48 50 50 46 49 48 45 47 48 44
45 36 36 46 38 34 41 44 50 64 58 48 34 20 27 29 34 37 38 34 25 16 17 16 20 21 23 32 34 38 30 27 34 39 36 33 33 32 35 36 33 36 36
29 25 28 39 37 35 41 50 51 60 67 50 36 25 24 26 35 39 29 22 21 15 18 17 17 14 13 13 15 13 16 18 20 19 19 21 23 23 23 27 32 32 31
15 17 21 35 37 39 49 54 55 66 62 48 41 33 32 35 31 38 27 20 20 16 19 21 21 15 19 19 20 19 21 21 16 18 22 19 20 23 24 24 28 33 39
13 18 22 33 38 52 56 56 54 51 55 45 44 45 40 33 35 27 16 14 20 15 22 23 23 20 20 23 21 18 18 20 17 15 17 20 19 24 28 30 36 40 48
14 23 22 35 42 55 59 58 60 52 46 42 48 51 42 40 40 31 19 18 21 20 25 26 20 20 24 29 30 23 23 16 16 17 19 22 28 28 33 37 46 49 51
13 26 26 33 42 44 47 58 52 48 40 42 50 48 44 40 39 23 25 27 25 25 31 26 26 33 26 29 27 24 24 29 31 30 30 35 35 39 42 52 53 51 55
11 22 26 29 38 43 45 56 50 47 44 44 53 51 47 46 44 34 28 28 32 36 38 32 31 31 39 29 25 28 30 33 39 40 46 41 47 46 49 50 56 55 56
12 16 27 29 34 45 51 52 54 53 53 54 55 53 51 51 47 31 34 36 43 44 41 43 45 42 41 41 41 42 44 47 45 48 46 49 48 50 53 52 53 54 55
15 18 18 31 36 39 49 53 52 52 52 47 50 49 42 52 38 35 34 42 44 46 47 47 46 45 46 49 49 45 46 47 47 48 54 50 52 50 50 53 52 54 56
18 16 24 30 30 34 43 54 46 51 54 49 50 40 41 41 42 43 45 41 45 51 47 49 50 46 38 41 42 51 50 51 54 55 48 49 48 50 54 58 56 59 59
22 17 14 22 28 34 42 50 52 53 55 50 38 43 44 46 47 48 45 50 52 54 55 55 54 58 55 55 55 59 47 48 45 48 49 51 53 56 57 57 58 58 60
23 26 21 15 20 32 36 42 50 51 54 46 41 41 45 47 53 49 49 50 52 55 54 56 57 55 58 60 55 54 52 50 49 53 57 58 60 58 57 56 57 59 57
25 26 23 22 19 31 31 41 54 51 53 52 46 42 46 46 48 53 50 47 54 59 60 56 59 64 66 60 56 55 54 61 65 66 60 58 57 55 56 56 55 56 59
19 22 21 23 24 27 38 40 48 53 47 53 50 48 49 48 51 53 56 62 58 56 56 58 61 60 56 59 61 66 65 65 59 63 58 54 52 56 57 58 58 59 62
16 22 26 28 24 32 38 44 50 56 55 49 52 52 52 55 52 55 56 54 56 60 60 61 58 59 57 61 67 67 63 68 58 55 59 54 55 55 58 60 62 62 59
18 20 20 22 27 32 40 43 50 52 51 51 53 54 54 52 54 53 53 53 53 59 64 65 59 54 63 63 63 64 60 60 56 53 55 57 58 60 61 60 56 53 54
14 16 20 25 31 33 40 39 40 46 51 52 53 54 52 52 48 50 48 54 61 61 57 56 60 63 55 51 53 53 50 52 54 55 57 60 58 57 54 54 53 55 59
12 15 20 28 31 33 35 39 40 41 49 49 46 45 49 53 57 55 57 51 54 54 50 46 48 52 57 54 53 52 53 53 57 59 58 58 57 51 52 54 60 68 73
11 13 17 28 29 29 33 32 33 35 36 39 43 47 45 41 44 53 57 48 50 47 41 45 51 53 50 51 50 52 54 52 55 53 50 50 54 58 60 65 72 78 77

GFSSE_250_spd_084.txt.gz
Wind_Speed
69 71 71 73 74 75 75 76 77 77 76 76 77 79 80 82 81 83 82 81 83 82 83 83 82 79 80 79 78 78 79 78 79 78 79 78 80 80 78 76 74 72 70
65 67 67 68 70 68 69 68 66 68 69 71 74 76 77 78 78 77 79 78 77 77 79 81 80 82 81 77 78 76 74 76 77 80 82 80 81 81 79 78 75 72 72
61 63 64 62 62 61 56 56 57 56 56 59 62 66 71 73 74 75 72 73 68 69 75 77 78 70 67 61 66 65 67 70 73 77 80 82 82 84 81 77 76 77 73
59 61 61 60 58 55 49 49 48 49 52 53 54 58 59 66 70 70 65 59 53 61 60 62 58 49 50 57 61 68 68 68 73 75 76 77 76 78 79 79 80 80 79
59 58 59 55 56 53 46 34 33 33 40 39 36 30 35 47 56 60 61 55 55 59 58 52 38 42 44 51 57 61 68 73 73 70 68 65 67 66 70 68 69 69 68
59 59 56 53 53 53 32 35 31 38 34 35 24 24 36 40 41 49 59 55 55 58 46 45 41 41 47 51 57 51 49 52 53 52 49 51 54 52 57 59 57 58 59
55 56 53 49 48 50 38 46 37 48 39 37 30 38 42 42 47 44 60 54 53 50 44 39 36 40 45 46 43 44 46 49 45 43 44 48 49 47 48 47 45 40 40
49 47 44 37 41 36 32 43 53 47 40 37 32 35 41 47 49 45 57 53 47 44 40 37 44 43 36 39 41 42 45 43 42 41 40 37 33 35 35 31 27 25 23
43 38 35 28 36 33 29 35 48 53 49 45 44 60 47 34 37 32 41 45 44 50 43 38 29 21 23 25 23 22 14 17 14 18 20 21 23 21 23 23 19 19 17
36 28 24 28 33 35 31 33 43 47 60 53 58 52 39 28 24 25 28 34 32 41 36 28 19 24 20 15 12 10 14 16 16 17 18 20 20 18 18 20 19 20 23
20 18 18 20 32 32 29 35 42 50 67 63 57 46 42 27 18 13 24 32 27 29 23 22 26 26 26 15 16 21 15 17 18 18 18 22 17 14 22 23 20 27 32
16 13 16 18 29 27 35 45 49 56 68 59 54 42 42 29 24 26 29 35 26 11 16 20 25 29 25 20 20 23 25 19 19 20 16 16 24 20 29 28 31 33 39
18 14 15 20 24 28 39 49 55 55 64 69 53 40 37 36 34 35 35 26 30 18 18 17 23 26 26 22 22 23 26 24 23 21 25 23 27 31 35 39 38 39 46
18 14 17 23 24 25 38 52 53 60 61 64 64 60 43 39 35 42 41 35 25 18 19 28 28 28 31 25 26 27 30 34 29 30 32 36 42 45 42 44 43 44 49
21 19 17 23 25 25 37 50 56 55 50 57 62 54 48 42 39 46 43 27 26 25 22 37 34 32 37 34 36 39 36 37 40 44 40 45 46 41 45 44 44 49 51
21 22 19 22 25 24 34 49 49 54 52 46 50 54 43 48 49 48 43 39 35 28 28 41 38 35 40 40 44 45 46 48 49 50 46 46 51 52 51 51 51 52 53
20 18 25 19 22 32 29 41 53 50 56 49 53 49 44 46 49 51 53 45 37 36 35 44 47 46 51 48 46 47 50 52 54 58 55 56 57 58 62 49 58 56 57
26 21 16 21 24 25 29 26 34 45 50 50 49 47 47 51 53 56 59 41 42 42 40 44 50 50 49 50 51 50 50 54 59 56 57 54 57 62 59 59 61 58 60
27 26 19 20 24 21 26 28 24 40 49 53 54 53 51 50 48 51 60 53 51 45 42 49 45 46 51 51 54 53 56 62 58 61 63 60 64 60 60 65 60 59 57
25 28 30 23 21 24 26 28 27 27 45 47 46 49 52 53 56 46 44 43 46 49 45 48 50 53 54 55 60 63 64 63 60 59 61 61 59 63 62 62 59 59 56
24 27 31 26 25 23 26 30 28 29 38 49 43 52 54 54 48 45 49 47 49 51 51 53 58 61 64 61 63 64 65 59 58 56 55 53 56 55 57 58 58 58 60
13 20 27 28 25 23 32 32 32 35 38 44 44 50 51 48 49 43 47 49 47 50 55 58 58 63 64 65 65 63 62 61 57 56 57 55 55 54 57 57 60 63 62
10 15 21 28 27 23 35 39 40 38 39 43 50 49 47 53 49 48 50 57 53 54 53 55 61 60 59 60 63 66 64 60 61 63 64 61 55 56 59 62 64 66 63
15 11 18 27 27 30 35 44 44 45 47 49 49 54 55 51 51 53 54 55 56 57 54 57 58 59 59 56 55 55 58 60 59 62 58 55 56 58 63 65 66 65 60
15 11 13 24 28 35 37 43 47 47 49 52 51 50 54 51 53 54 54 55 58 54 55 51 54 56 56 52 52 55 63 58 56 54 56 57 58 61 61 59 55 56 57
13 9 11 14 24 40 42 47 46 45 49 50 50 50 51 54 53 53 51 52 51 53 53 55 56 55 53 56 64 63 57 54 58 57 56 55 52 54 54 51 57 56 53

GFSSE_250_spd_087.txt.gz
Wind_Speed
65 71 73 74 75 77 78 79 79 81 82 82 81 82 82 83 84 85 83 86 86 84 83 84 84 83 80 79 77 77 77 78 80 78 78 79 80 79 81 79 79 78 76
61 63 66 68 70 72 72 73 73 74 75 77 77 78 78 78 81 82 82 83 82 83 85 86 85 83 83 83 82 80 79 77 76 77 79 78 79 82 83 82 83 81 79
55 57 59 61 62 64 64 63 61 58 58 62 65 68 68 70 76 78 77 76 77 77 77 79 80 80 79 78 76 77 68 69 65 69 70 68 75 79 81 81 78 78 77
51 54 57 58 57 56 57 55 50 45 42 42 45 49 54 61 64 67 69 72 72 73 73 70 68 67 71 67 62 57 59 56 52 63 67 70 75 80 80 74 73 76 76
54 54 55 56 53 54 51 45 42 33 29 27 33 38 41 45 55 56 59 63 63 64 64 60 55 57 53 49 45 46 48 53 60 59 63 67 70 64 63 63 64 60 62
53 54 54 52 52 52 51 38 34 27 20 25 46 49 36 29 29 31 40 45 49 54 54 39 48 53 53 47 38 39 42 50 52 57 56 53 50 47 50 47 53 52 50
54 51 49 47 47 49 42 38 38 34 38 39 47 49 34 30 32 39 36 37 33 43 45 52 57 59 48 42 40 41 42 46 48 48 45 45 44 41 41 45 46 43 41
53 53 46 43 40 38 34 34 44 44 47 51 43 48 31 33 28 33 42 41 42 37 38 49 51 54 51 39 39 39 46 49 49 47 45 43 43 42 43 37 33 32 31
51 46 43 39 33 31 27 36 53 50 51 62 49 54 35 29 35 37 43 40 41 43 41 44 50 48 36 35 37 35 35 34 33 36 35 33 32 30 26 23 23 21 19
45 38 38 34 27 26 28 31 49 60 67 62 54 50 41 36 33 38 37 28 31 35 36 37 38 36 35 30 25 20 14 13 14 16 19 21 23 25 21 18 16 21 17
38 34 32 28 21 23 31 29 46 59 63 64 49 43 38 44 42 35 28 24 34 32 32 37 36 37 29 27 21 20 13 14 12 17 19 23 20 19 13 13 17 23 25
35 31 27 24 17 24 21 28 40 57 61 58 51 46 46 50 45 39 32 30 27 24 25 24 24 28 25 28 26 23 21 18 14 15 18 20 15 15 16 22 27 35 32
32 27 22 26 22 19 20 23 33 49 66 63 54 56 66 54 40 33 35 20 17 25 25 20 21 26 30 34 27 28 23 19 17 14 17 16 20 28 31 32 38 40 34
27 24 23 23 23 18 21 32 36 47 52 64 66 60 64 57 42 35 33 27 28 24 23 21 21 22 32 34 31 28 23 20 20 27 23 27 32 37 39 42 44 45 41
29 24 26 24 25 21 19 40 45 46 52 66 66 61 55 46 37 45 29 32 29 28 30 25 17 24 26 30 29 30 29 22 29 30 27 37 40 42 46 47 49 49 53
30 21 30 27 30 24 20 36 50 51 58 65 68 60 49 45 35 40 31 36 40 33 32 26 27 29 33 30 34 35 37 40 37 39 39 41 42 45 47 49 51 56 57
31 20 31 30 33 32 28 23 50 56 58 62 68 63 53 56 44 39 39 32 44 37 32 27 27 29 35 40 42 39 35 43 45 41 46 47 49 51 53 55 54 54 59
31 23 31 39 29 36 30 27 39 59 63 62 66 66 61 48 48 46 39 33 44 38 38 39 31 32 41 45 49 43 46 47 47 50 51 52 54 57 56 55 57 59 61
32 24 28 36 37 34 37 34 32 54 55 59 60 61 62 59 52 42 42 52 47 46 50 44 40 39 41 50 53 53 53 46 49 52 55 59 58 59 58 59 59 59 60
32 24 23 32 35 36 41 38 33 38 46 50 51 48 58 59 55 44 42 44 46 54 46 46 47 49 51 49 52 54 54 53 55 58 62 63 65 65 61 58 61 62 61
32 27 27 30 34 37 39 44 37 35 27 43 49 57 60 56 53 48 43 52 56 50 60 56 52 52 51 53 55 55 57 59 57 57 59 62 64 65 61 62 64 64 67
30 25 25 31 37 37 41 45 38 35 31 33 42 50 47 52 53 49 54 57 54 46 55 53 50 49 52 54 55 57 58 60 58 62 64 65 67 62 64 66 65 65 65
26 19 22 25 31 40 40 46 42 36 37 35 41 46 47 46 47 54 56 55 56 52 49 52 54 50 47 49 51 53 59 60 65 68 67 68 67 64 66 63 61 61 62
26 20 15 21 22 36 36 43 41 38 37 35 44 46 49 52 52 51 53 57 56 51 51 52 54 54 56 55 60 60 66 68 67 68 69 65 63 65 64 63 61 63 65
27 21 14 15 24 36 33 39 40 42 41 40 48 49 49 51 53 53 47 51 55 55 53 57 53 56 61 61 63 67 66 66 66 61 61 62 65 65 61 61 66 63 59
28 21 14 9 21 31 34 37 44 51 49 48 52 54 55 55 53 54 58 58 59 59 58 59 61 59 62 63 64 66 65 64 61 63 65 66 64 62 65 65 60 57 55

GFSSE_250_spd_090.txt.gz
Wind_Speed
64 66 66 69 74 78 79 80 79 79 79 79 79 79 78 79 81 82 81 82 84 84 85 85 85 84 83 83 80 78 79 78 78 78 77 77 77 78 80 81 81 80 80
55 60 62 64 66 70 72 73 73 76 75 76 77 76 76 76 76 77 78 79 80 80 81 84 86 85 84 84 83 80 79 80 77 78 75 76 76 75 77 78 80 80 80
49 51 56 58 60 60 62 63 64 63 62 61 60 63 63 62 65 68 69 72 74 75 76 76 80 81 82 83 83 80 81 80 78 76 75 69 68 71 70 73 74 77 76
48 48 51 51 53 54 56 56 54 51 47 44 39 38 38 34 34 40 50 57 63 67 71 72 73 72 71 71 73 67 66 69 67 60 59 56 53 59 63 65 69 70 68
48 49 52 52 54 53 52 49 49 44 34 20 16 26 26 30 33 34 41 46 50 56 59 64 68 68 65 62 62 61 62 51 48 43 51 55 53 58 63 65 58 57 58
45 49 51 50 52 51 50 47 47 40 30 20 24 48 39 38 41 37 39 39 37 45 49 50 53 53 49 47 40 42 46 38 38 44 51 52 55 49 54 52 47 42 43
44 48 48 48 51 50 50 46 42 39 35 38 33 55 40 38 37 33 29 21 27 26 25 32 38 39 36 32 41 43 46 43 41 40 41 45 51 45 37 38 40 41 40
46 49 46 44 49 46 43 43 39 40 45 48 47 44 57 48 44 38 36 32 32 33 30 26 23 32 36 41 42 46 49 41 39 39 41 48 46 43 42 43 41 38 39
44 47 47 42 46 40 37 34 33 40 51 62 57 56 44 48 48 30 29 31 31 34 34 29 25 26 37 43 48 48 47 51 38 39 42 40 40 38 35 32 33 32 30
42 44 41 37 44 33 31 25 30 41 56 68 63 58 54 61 46 39 33 34 39 35 33 32 31 32 38 48 51 50 45 34 30 30 25 24 22 24 26 25 24 15 14
39 41 38 35 37 29 28 22 29 50 65 67 58 53 57 60 48 35 35 36 41 42 23 31 30 31 29 37 46 41 29 25 25 21 21 20 20 21 21 20 14 14 13
33 39 37 32 30 28 23 18 32 59 62 66 61 51 54 48 40 40 38 37 31 29 27 31 31 32 30 31 36 27 25 27 22 21 13 12 17 18 17 14 14 21 29
35 36 34 30 27 27 25 19 30 53 66 65 57 58 55 48 47 46 44 43 16 18 20 22 23 27 25 29 30 29 31 30 26 18 15 10 12 18 15 21 24 34 36
36 35 32 31 25 28 26 22 27 45 63 60 59 58 57 51 47 51 47 38 26 19 22 17 20 19 22 26 27 32 34 33 29 24 17 16 16 22 24 28 32 33 35
34 31 30 32 25 31 27 24 23 40 61 60 61 61 57 52 50 50 46 34 31 26 23 26 20 26 14 23 28 34 34 36 29 20 18 22 23 25 32 35 36 39 41
30 30 31 30 29 31 31 27 30 32 47 63 63 62 56 55 53 49 30 33 32 24 26 26 22 22 16 19 26 27 30 30 33 30 31 32 32 39 38 39 43 46 47
32 33 29 28 28 34 38 29 28 38 40 63 64 64 63 63 59 55 46 31 32 30 32 34 24 28 29 28 26 27 31 33 35 34 37 37 42 40 43 46 49 53 52
32 32 29 27 27 37 40 33 27 40 41 50 69 69 67 64 61 52 43 40 34 35 36 36 31 29 29 26 29 32 35 37 40 40 36 42 49 46 47 47 50 53 57
30 32 28 26 28 39 40 37 34 33 47 52 47 67 71 59 60 53 44 46 39 37 38 42 38 36 37 34 37 36 42 39 42 46 47 53 49 49 50 52 55 58 60
31 33 29 25 29 41 38 44 39 35 43 54 52 63 61 57 59 58 60 47 48 43 34 42 48 34 41 43 41 42 46 49 47 52 55 51 50 54 53 56 60 64 67
31 36 30 21 23 41 51 45 44 40 39 49 58 65 63 63 60 51 55 53 50 51 41 48 48 44 47 48 46 47 48 50 49 52 53 53 55 57 57 61 63 69 71
29 36 32 26 25 36 48 46 49 44 40 44 56 62 71 61 70 64 56 54 53 46 49 48 55 51 48 53 52 50 50 52 52 49 51 53 57 59 61 65 69 72 72
27 34 33 25 29 28 45 49 51 46 42 41 50 51 57 67 66 62 62 60 60 55 48 48 51 54 56 57 57 52 50 44 47 52 56 59 63 65 66 69 71 71 75
25 31 35 24 26 24 37 49 48 48 46 42 44 53 55 53 62 62 55 60 57 51 50 51 50 54 54 53 55 52 53 53 58 58 60 62 66 70 70 74 73 72 70
24 29 34 27 22 22 27 45 47 47 50 47 41 40 45 48 49 52 50 47 50 49 52 57 56 58 56 53 54 54 56 57 58 59 63 66 70 73 75 72 73 73 69
27 25 31 28 20 17 22 39 44 48 50 48 46 42 42 43 43 46 47 52 51 53 59 56 55 56 55 55 56 58 58 61 60 62 64 66 72 72 69 73 71 70 70

GFSSE_250_spd_093.txt.gz
Wind_Speed
59 59 59 60 63 68 69 70 71 73 76 78 78 79 79 79 78 79 81 80 80 81 82 83 85 85 84 83 81 80 79 79 79 78 78 78 79 79 79 78 80 80 81
54 55 55 55 57 58 62 65 65 67 71 74 73 75 75 73 73 73 73 72 71 74 74 77 81 83 85 85 84 82 81 79 76 77 76 77 76 76 76 75 77 76 77
47 49 51 50 51 52 54 57 60 61 63 64 67 65 65 64 64 64 63 66 68 70 72 74 76 76 77 78 79 82 82 78 75 73 74 71 71 71 69 70 67 74 73
45 45 44 44 47 49 50 52 53 54 53 53 51 49 45 40 40 40 39 38 41 45 52 58 61 66 70 72 73 71 72 73 73 67 62 61 55 54 55 59 53 55 63
49 48 46 45 46 47 49 49 50 49 49 46 39 26 18 17 18 25 29 31 36 36 38 43 47 53 57 61 60 64 65 62 60 51 44 47 48 44 46 46 51 53 55
52 51 50 48 49 47 48 50 47 45 43 42 34 29 24 38 43 29 34 43 42 38 38 41 41 42 46 46 46 49 49 46 44 42 36 35 34 40 48 51 54 55 47
49 50 47 48 49 50 49 47 46 45 42 38 39 36 31 32 41 36 34 39 42 34 34 28 24 24 28 32 34 36 34 31 29 28 34 34 39 41 44 46 48 42 41
45 46 44 45 47 47 48 44 45 45 40 39 44 49 45 37 43 39 40 36 38 28 24 19 20 13 16 25 28 24 20 31 29 39 42 41 38 40 42 43 41 40 44
45 44 43 43 45 44 42 41 42 41 39 40 52 58 48 52 50 44 41 44 36 33 31 27 25 18 14 16 26 30 30 37 41 36 41 44 45 42 42 44 42 40 36
45 42 43 44 42 41 42 40 36 36 37 40 51 60 56 51 47 50 48 49 44 35 30 30 26 22 21 22 17 26 34 34 35 39 41 43 43 38 37 33 30 23 17
47 40 39 41 39 41 41 38 31 30 33 39 59 61 53 51 50 52 49 48 31 31 28 27 22 26 27 23 27 29 38 39 40 39 37 38 29 25 25 23 18 13 14
44 36 37 38 39 39 40 34 25 24 32 39 65 67 57 54 51 49 47 45 37 27 34 31 31 27 26 28 29 37 43 46 44 40 35 26 19 26 24 19 9 12 14
41 36 36 38 38 37 38 33 21 23 30 41 66 67 65 60 56 50 51 42 33 30 34 31 28 31 32 31 30 39 43 45 44 32 26 23 18 18 16 17 17 16 21
41 40 37 38 38 35 33 32 22 23 27 39 59 70 67 61 59 56 51 47 43 35 29 28 20 24 22 26 27 32 31 35 35 34 25 25 18 14 17 21 21 18 24
40 38 36 39 38 35 32 33 26 26 31 43 55 66 66 61 52 49 48 48 41 34 18 29 28 22 24 18 24 27 31 32 30 31 27 29 25 20 21 20 23 33 36
38 39 36 40 38 37 32 31 30 24 37 48 54 50 60 56 47 51 53 49 44 38 25 30 21 23 26 21 25 25 26 31 34 33 30 26 28 24 25 28 31 33 39
41 38 36 37 37 36 33 30 31 25 41 49 56 51 46 49 53 53 55 44 40 40 34 27 25 25 27 23 15 17 23 25 28 36 36 35 32 34 36 39 42 40 41
37 37 37 35 35 37 33 30 34 30 39 46 57 54 56 51 53 59 61 48 46 41 41 37 25 27 26 25 20 21 26 25 25 28 33 36 37 39 42 41 42 42 43
41 38 36 34 34 38 34 29 37 34 42 45 50 63 57 57 57 57 57 48 40 43 37 32 29 34 28 26 26 28 29 31 33 34 38 37 44 41 48 50 47 48 48
41 37 34 32 31 34 34 30 39 37 40 44 47 51 64 62 61 61 53 50 52 42 40 36 36 38 40 35 31 32 39 41 43 43 44 43 44 46 50 50 50 51 53
38 34 30 30 33 28 28 32 38 41 41 47 43 44 56 63 64 61 55 57 54 54 48 37 39 40 43 41 42 41 42 43 44 44 43 45 46 49 53 54 56 56 60
30 29 27 27 34 34 24 28 35 44 45 44 51 49 51 61 63 64 58 54 54 58 52 46 43 42 48 47 48 50 47 46 43 45 48 50 51 51 54 55 59 62 64
29 27 24 27 31 36 32 28 36 47 46 44 45 50 53 52 62 62 60 57 56 56 51 51 49 49 45 50 46 53 52 52 48 50 54 53 53 48 54 58 60 63 65
26 24 24 26 31 36 31 26 30 43 51 47 45 43 48 54 54 59 60 64 59 56 57 59 54 54 46 46 48 54 56 52 54 56 55 54 56 56 57 59 64 65 66
26 23 23 26 30 36 31 21 21 40 46 49 41 41 41 46 55 56 61 63 63 61 60 54 57 61 53 53 47 49 55 56 53 53 54 54 56 58 59 62 64 67 68
25 22 22 25 29 35 28 23 22 29 42 43 47 43 42 46 46 50 62 65 63 71 67 66 55 55 53 54 52 51 54 56 55 57 60 58 61 61 65 65 67 68 69

GFSSE_250_spd_096.txt.gz
Wind_Speed
57 57 59 60 62 64 66 66 68 71 73 75 77 77 77 77 79 78 80 81 82 82 84 84 83 83 83 82 81 83 82 81 80 79 77 77 76 76 78 77 77 78 79
50 51 52 53 54 58 58 63 64 65 66 69 72 73 72 73 76 75 75 77 79 78 79 80 82 83 83 83 83 83 81 82 81 79 80 80 79 77 76 75 76 76 76
45 45 46 49 51 51 51 53 57 59 62 63 61 61 61 61 62 60 60 63 66 67 66 65 68 70 75 79 81 81 81 82 82 79 77 74 74 74 73 70 69 68 69
46 45 44 44 47 49 49 48 48 50 50 50 51 55 56 54 52 48 46 48 50 52 54 53 54 57 63 67 71 73 72 73 74 72 72 67 62 60 56 56 49 47 50
45 44 43 44 47 48 47 47 46 47 46 46 47 47 45 44 42 32 24 23 27 30 32 33 34 38 40 45 50 54 59 63 63 63 62 57 51 46 39 37 38 35 40
46 44 43 42 43 45 46 45 44 46 45 43 40 44 46 39 34 27 20 18 22 28 35 36 34 37 37 37 39 45 44 44 46 44 38 41 39 36 32 28 34 36 44
44 43 41 43 44 45 44 43 43 43 44 38 37 44 45 35 40 35 28 24 22 31 42 44 41 37 40 33 35 36 32 34 37 37 26 27 34 30 29 33 36 42 43
43 41 43 43 45 45 44 42 42 40 41 42 41 47 47 43 45 37 30 28 28 28 34 29 24 25 21 18 22 28 25 30 27 25 25 34 29 28 36 36 35 42 42
39 41 39 39 44 45 44 42 40 38 41 42 43 45 49 47 49 36 26 30 36 31 34 26 22 21 17 15 15 18 23 26 20 19 30 30 31 38 39 43 47 41 46
39 40 40 41 43 40 39 40 41 42 37 36 39 45 48 48 53 44 37 19 37 42 35 26 22 21 16 16 21 15 18 24 31 37 39 40 32 33 37 42 42 41 30
39 39 41 41 40 39 36 38 42 42 38 37 40 43 46 48 49 44 42 46 42 44 35 35 25 20 16 22 25 21 22 26 27 32 29 31 33 35 35 39 35 23 20
37 39 39 40 41 42 38 39 40 38 38 34 33 38 44 47 54 49 44 41 49 42 33 29 33 26 16 20 23 27 24 29 38 40 35 32 38 32 36 28 25 22 19
41 39 36 37 41 43 41 39 39 37 35 29 29 34 43 55 59 50 47 44 55 42 33 38 36 31 22 30 30 29 32 34 40 38 35 35 35 30 22 23 19 18 16
41 43 38 38 39 43 44 42 42 36 31 26 24 29 41 56 61 60 54 56 48 41 42 29 29 18 22 30 34 35 35 42 43 39 37 41 40 23 22 20 23 23 18
43 44 39 39 38 41 42 41 43 38 29 25 21 22 37 54 60 64 52 41 37 39 39 28 24 26 20 24 30 20 31 33 41 41 42 40 31 24 20 16 17 22 20
39 41 40 41 43 41 40 41 41 37 29 23 21 28 32 54 55 55 51 50 52 45 35 28 26 25 26 32 34 31 28 27 30 29 32 34 31 29 27 26 23 26 28
36 39 39 40 40 40 41 42 41 36 29 24 28 35 36 49 60 58 52 48 47 46 40 33 32 28 25 29 27 29 31 30 28 26 34 33 33 28 30 32 32 35 37
36 36 40 40 40 39 39 41 42 33 29 29 29 43 41 42 53 59 61 51 46 42 36 35 36 29 27 30 30 25 26 24 24 24 24 31 36 36 39 35 34 39 40
36 34 39 42 41 38 34 37 40 31 28 32 32 42 48 44 47 63 55 50 48 44 41 36 38 33 28 29 30 32 27 26 25 24 25 26 32 37 42 42 42 46 45
36 35 38 39 37 32 33 32 36 33 26 36 34 40 49 51 51 45 54 60 48 47 45 41 42 40 40 33 35 35 36 33 31 30 32 35 37 32 39 45 44 43 46
32 32 37 35 30 30 31 32 25 32 26 38 38 44 46 56 52 52 54 53 55 49 47 43 46 37 41 38 38 37 41 44 44 33 37 41 42 39 42 42 44 47 50
29 32 37 32 29 28 30 30 29 25 27 37 41 44 46 51 58 58 56 54 50 53 54 46 45 46 39 44 47 49 47 48 45 45 40 41 43 44 47 46 49 53 55
26 29 34 29 29 29 30 30 28 26 27 33 42 45 49 48 52 56 59 58 57 55 56 54 53 46 47 42 45 46 48 48 48 46 47 47 47 50 49 52 53 55 55
26 28 32 30 28 28 29 29 27 26 24 32 43 45 49 45 45 51 45 58 54 58 57 58 56 58 56 52 49 44 44 44 51 50 50 52 55 53 53 53 56 58 59
24 28 31 29 28 27 28 29 28 23 22 28 39 44 47 46 47 44 50 52 52 53 61 62 62 58 57 59 54 52 55 47 48 52 54 58 58 57 55 55 56 59 63
26 28 28 28 26 26 26 29 31 25 15 21 34 42 42 42 43 46 49 49 54 56 60 60 61 64 60 60 59 61 57 55 56 51 53 53 55 58 58 61 63 63 66

GFSSE_250_spd_099.txt.gz
Wind_Speed
56 56 56 57 58 61 62 64 65 63 67 71 73 75 75 77 80 84 87 87 86 86 86 85 85 85 86 85 84 83 84 84 83 81 81 80 81 80 79 79 78 76 76
51 50 50 51 52 52 53 55 58 60 58 61 62 67 72 75 76 80 82 82 81 85 87 87 85 84 83 84 85 85 84 84 84 85 83 82 81 81 81 80 80 78 78
49 49 50 50 50 50 51 52 53 53 54 54 54 57 61 64 67 72 74 76 76 78 77 75 78 81 80 81 80 80 81 84 84 86 84 82 79 77 76 75 74 72 72
48 49 47 48 50 51 49 49 49 49 51 51 51 52 53 54 57 60 61 64 65 66 65 66 68 71 69 69 70 72 74 75 75 75 76 74 73 70 68 67 63 64 60
49 49 48 46 47 47 47 45 43 43 46 47 47 49 49 48 50 51 51 52 53 54 52 48 47 51 52 51 54 57 55 54 55 58 60 61 61 61 63 57 54 49 46
51 51 47 46 46 45 44 43 40 40 42 42 44 48 47 48 44 43 43 41 42 41 28 18 19 26 31 33 35 37 38 40 43 46 47 46 48 43 37 36 39 34 32
51 51 47 46 46 46 43 42 41 39 39 39 42 46 47 46 45 40 40 37 36 33 25 20 22 31 35 33 34 35 37 37 38 39 37 31 29 26 27 26 29 32 31
49 51 46 46 45 43 40 40 39 39 39 36 38 43 42 45 43 40 40 43 41 33 24 20 23 31 37 37 32 28 27 29 30 32 32 26 31 24 35 36 29 24 31
48 48 46 45 43 40 40 40 36 36 34 35 37 40 41 46 44 38 40 46 41 33 27 23 24 22 28 24 19 13 19 23 28 30 26 20 37 30 37 36 29 34 38
50 46 42 42 41 40 40 41 35 34 33 36 38 37 42 41 42 38 42 53 44 35 30 20 24 19 23 20 11 15 14 15 19 23 25 17 25 31 33 30 29 30 34
50 42 38 39 38 37 38 39 33 34 36 37 39 38 40 35 37 39 46 55 41 36 32 26 24 25 22 18 13 15 19 18 21 21 25 29 31 30 34 32 27 36 36
46 40 35 35 37 38 37 38 36 34 36 36 39 38 38 34 37 40 47 53 46 36 26 32 26 28 25 16 19 13 20 20 25 24 27 34 39 35 28 29 34 36 26
45 42 36 33 38 40 41 38 36 36 34 34 38 36 37 32 33 38 46 51 55 34 38 32 29 32 31 30 23 21 22 23 27 30 27 34 30 31 29 26 32 25 20
45 42 36 35 36 38 39 38 38 37 35 35 34 34 33 31 29 39 50 49 48 47 41 34 27 27 33 34 32 33 30 33 33 30 35 34 28 31 32 33 29 24 24
43 43 38 38 38 38 38 38 36 36 35 34 32 28 29 22 25 41 46 45 42 40 39 27 32 32 28 22 21 29 32 32 31 27 33 35 34 32 37 36 36 27 27
43 40 40 38 40 39 39 39 40 36 35 34 31 24 23 15 17 52 49 45 43 41 39 40 36 34 32 28 19 21 21 25 29 28 25 31 36 42 38 35 32 22 21
43 38 39 40 39 39 40 40 40 36 36 35 26 23 20 23 23 46 56 54 47 44 39 34 36 37 30 26 26 25 29 29 28 31 29 23 29 32 31 36 32 28 31
40 37 38 39 36 38 39 37 37 35 36 35 21 23 26 29 30 51 52 62 54 46 38 43 41 33 30 28 28 25 30 29 35 32 30 28 27 30 32 37 37 35 32
37 37 38 37 35 36 34 32 30 33 38 32 20 28 34 35 35 46 50 52 59 53 45 43 42 36 34 36 36 28 33 31 35 31 29 32 27 28 33 37 37 38 41
33 35 35 36 32 34 35 29 29 29 32 30 21 32 37 40 40 50 54 51 50 48 57 51 40 41 39 38 36 35 34 34 36 33 29 31 31 29 27 27 29 34 39
33 36 33 32 28 31 31 28 28 26 30 34 23 34 37 46 45 47 51 55 57 56 50 47 40 38 41 42 41 33 34 34 37 36 25 38 35 28 36 34 40 37 40
31 37 31 29 28 31 30 28 29 27 31 32 25 30 40 47 45 45 43 46 55 55 55 48 44 43 41 40 45 43 40 41 35 37 41 41 44 39 41 43 42 43 45
31 37 31 28 27 31 28 27 26 26 29 30 28 28 45 46 53 48 48 52 47 52 58 50 44 43 46 45 42 41 45 44 41 40 41 43 45 44 47 48 42 46 49
32 36 31 29 26 31 25 25 25 26 30 27 24 29 47 49 51 56 58 48 49 49 53 51 52 50 50 51 53 47 43 45 44 49 47 43 47 51 52 52 51 54 56
33 38 32 31 24 27 24 25 24 25 29 23 23 24 45 49 48 48 57 58 56 53 52 50 56 59 58 58 55 54 52 50 53 51 46 48 48 50 54 55 56 54 59
37 40 35 28 23 24 24 24 23 24 26 24 18 21 34 49 49 47 48 56 57 53 53 54 55 55 59 60 63 58 57 57 57 51 54 54 58 53 55 54 53 56 56

GFSSE_250_spd_102.txt.gz
Wind_Speed
56 56 55 56 58 59 58 58 60 60 62 63 68 71 73 74 77 80 84 84 84 86 87 86 86 86 86 85 86 86 84 83 83 84 84 84 83 84 83 81 79 79 78
48 48 49 52 52 52 53 53 53 54 55 55 57 62 67 70 71 74 78 83 85 87 88 89 89 89 88 88 88 88 88 87 87 87 86 86 85 84 83 82 80 80 79
49 51 52 51 49 50 51 51 52 52 52 52 54 55 57 61 64 66 66 71 78 81 83 85 89 90 88 86 86 88 87 86 86 86 85 82 81 81 78 75 75 75 75
51 52 51 50 49 49 50 49 49 49 50 49 49 52 54 54 56 58 60 58 64 68 71 75 76 74 75 77 76 76 79 80 81 83 78 78 79 78 75 75 72 69 65
47 49 51 50 49 48 49 49 48 47 46 46 46 47 48 52 54 53 51 52 49 55 58 61 63 65 67 68 72 71 69 69 70 69 68 71 68 72 68 64 60 57 54
43 47 51 52 51 51 47 43 43 42 42 42 43 43 44 46 48 50 46 46 42 44 47 47 50 49 49 53 53 56 55 49 41 44 47 46 44 47 47 48 44 40 38
39 47 52 54 53 51 47 43 42 41 40 40 40 42 40 42 44 46 46 48 42 41 42 38 38 30 23 26 26 27 28 30 30 32 33 36 37 37 37 34 33 33 29
43 47 50 52 53 51 46 42 40 39 38 38 37 37 38 40 40 43 44 47 43 43 39 31 36 33 29 20 25 28 29 28 30 28 30 33 32 28 21 27 31 26 24
41 50 51 51 49 50 46 40 35 36 36 33 34 32 33 35 37 40 39 41 41 40 37 33 35 37 32 33 29 32 27 29 20 22 26 29 24 27 30 21 27 32 36
42 45 44 44 46 45 42 35 34 35 34 31 29 30 32 30 34 35 35 36 36 36 41 37 35 27 28 18 20 23 22 16 19 21 22 24 29 29 27 27 30 28 30
41 43 47 42 43 38 38 35 35 37 36 31 31 32 34 31 35 31 32 35 39 41 47 44 33 27 23 19 20 17 14 14 14 18 18 21 22 26 32 30 26 26 24
46 44 44 39 38 37 38 36 34 34 34 33 32 31 32 34 35 25 26 35 43 46 51 45 40 26 25 22 22 20 19 12 17 20 19 20 21 21 28 28 22 25 23
50 47 45 41 34 38 39 34 35 36 32 32 32 33 32 32 33 23 25 36 45 53 46 41 28 31 33 22 22 16 17 15 19 20 24 23 24 25 31 36 27 23 21
52 53 48 45 35 36 37 36 36 36 34 32 32 33 31 32 29 25 27 39 48 51 46 37 35 30 26 30 25 21 21 21 20 25 31 25 26 25 24 27 30 29 22
51 54 45 47 38 35 36 35 38 37 34 33 34 30 30 30 27 25 24 40 49 53 49 36 34 36 33 33 27 28 25 23 24 30 26 21 21 27 29 25 25 29 28
50 51 45 45 44 40 36 35 38 37 35 33 31 27 33 27 26 20 19 41 47 51 46 38 38 34 29 28 20 24 20 23 29 27 20 20 21 23 30 28 30 31 31
50 49 45 44 44 40 34 35 37 38 34 30 27 28 31 24 22 16 21 44 50 49 44 43 38 31 32 29 29 27 23 22 20 21 23 24 24 22 28 27 29 29 32
50 50 45 42 42 41 35 33 39 36 34 25 27 29 26 24 21 26 38 45 49 44 43 38 40 38 33 30 27 26 24 25 28 25 24 26 29 28 25 23 26 28 29
50 50 45 40 41 38 33 33 37 36 29 25 27 27 23 27 27 35 40 50 51 43 41 42 35 38 37 32 30 28 29 24 23 30 28 29 32 27 22 22 26 34 31
50 49 43 37 38 35 31 33 35 34 27 25 27 27 24 32 32 44 46 50 52 53 42 43 40 34 34 36 30 28 28 31 30 32 27 29 34 28 30 29 25 26 29
52 50 49 35 38 32 31 32 33 33 26 27 29 32 25 34 39 51 51 52 52 52 47 46 38 39 44 43 36 35 34 37 36 37 28 28 29 25 24 27 23 19 26
52 49 47 35 39 31 30 30 32 30 25 25 28 32 27 31 47 45 52 55 53 54 49 49 48 48 42 38 33 34 34 41 38 37 31 31 38 33 32 34 33 35 33
53 52 46 35 39 29 29 29 32 27 25 26 29 33 28 31 49 49 47 55 52 49 51 50 55 54 48 44 39 42 39 43 47 46 40 34 34 33 34 39 39 43 41
54 53 44 35 37 28 28 30 27 22 23 27 29 33 28 31 49 52 50 47 59 57 58 56 52 46 51 45 44 44 42 42 39 38 36 35 39 41 41 44 47 42 48
56 53 41 36 36 29 26 31 24 22 23 27 28 31 24 30 49 54 54 49 55 65 64 54 58 55 49 52 47 47 49 49 48 44 43 43 44 45 45 47 47 47 48
56 50 37 39 35 30 27 30 23 22 24 25 28 30 21 28 48 60 56 49 57 54 56 58 54 51 55 54 50 50 51 55 55 53 52 51 52 52 54 49 52 53 56

GFSSE_250_spd_105.txt.gz
Wind_Speed
52 52 52 52 51 52 50 51 52 55 56 57 60 62 66 70 74 77 79 79 81 83 84 84 85 85 85 85 83 85 85 85 85 84 85 84 84 85 83 83 83 81 80
50 49 49 49 50 49 50 50 49 50 51 52 54 57 60 61 63 69 72 76 79 82 84 87 86 87 87 87 86 86 86 86 86 87 87 86 84 84 82 83 83 82 81
51 49 47 47 48 48 48 50 50 48 47 49 50 52 56 58 58 59 61 66 70 74 78 82 84 86 89 89 89 88 87 89 88 87 88 87 87 89 88 87 86 86 81
50 48 43 43 44 46 46 48 49 48 47 46 47 50 51 52 54 57 57 57 60 62 64 69 69 73 78 82 85 87 84 84 82 83 85 85 83 81 82 81 82 79 75
50 51 46 41 39 41 45 48 48 47 46 44 43 44 46 47 49 50 52 51 54 52 53 57 60 58 58 63 66 66 69 69 66 68 69 67 66 67 68 70 70 68 65
47 49 47 42 39 43 45 47 48 46 44 43 40 41 42 42 44 47 49 48 49 48 50 55 52 52 52 51 56 58 58 60 58 56 58 56 56 55 52 54 52 54 50
47 49 42 38 38 41 44 42 41 42 40 38 36 37 37 39 42 45 43 39 40 44 41 49 49 45 44 45 48 47 49 52 49 45 41 37 35 34 34 40 42 41 38
45 46 45 37 41 40 42 40 39 38 35 34 34 34 34 35 37 40 42 40 45 43 43 41 48 41 41 41 39 29 24 30 31 28 25 28 31 33 36 36 36 35 26
44 47 43 41 41 43 43 42 40 35 32 30 31 32 31 32 28 29 32 37 40 44 41 44 45 39 36 34 34 29 23 25 26 27 25 28 28 31 30 31 29 25 20
44 48 44 37 38 42 42 41 37 31 29 31 33 32 30 31 32 36 33 32 36 39 40 39 38 34 36 43 40 36 32 30 27 25 25 24 29 28 27 23 26 22 18
45 46 44 42 44 44 42 41 39 33 30 32 32 34 32 32 32 36 37 36 36 36 37 38 36 40 38 37 38 26 25 25 27 26 24 23 22 17 19 22 26 24 21
47 47 45 45 48 48 47 43 39 33 33 32 32 33 33 32 32 30 29 29 36 37 39 39 41 43 36 40 25 24 23 23 22 19 20 17 16 16 18 23 23 26 23
46 46 45 47 49 49 48 44 37 35 33 34 33 35 34 34 34 30 27 28 31 33 43 45 47 42 36 36 32 30 25 21 18 19 19 17 15 18 19 23 22 25 21
47 46 46 47 52 50 46 41 37 34 33 34 34 38 36 35 32 30 26 30 31 32 45 47 48 38 39 34 30 32 27 24 21 16 17 15 22 21 20 21 22 26 28
49 51 50 50 54 46 43 41 36 35 35 34 35 36 39 35 31 30 27 29 32 34 46 50 51 47 43 38 30 32 28 22 21 22 17 24 22 21 22 20 20 23 26
51 52 51 52 53 46 38 39 36 32 33 33 36 36 36 33 29 28 26 27 30 34 51 54 47 35 32 41 35 36 29 25 24 22 23 23 19 20 18 17 27 26 25
52 49 50 53 52 48 41 43 34 31 32 33 35 37 34 26 28 25 24 26 28 39 56 47 44 40 35 37 39 38 28 27 28 22 24 20 18 20 20 21 19 23 23
47 49 54 56 50 44 46 42 34 34 31 32 33 35 26 23 23 21 22 20 22 47 56 48 43 39 35 35 34 38 28 24 25 25 21 16 17 17 19 24 24 18 18
48 51 60 53 45 40 43 43 35 32 30 32 31 33 25 21 22 21 23 20 32 54 50 48 48 41 37 34 32 34 31 29 27 24 23 28 20 19 23 24 19 14 18
56 56 52 46 42 40 41 39 33 32 30 32 31 29 26 21 22 25 27 33 39 53 48 46 44 45 40 39 34 32 36 31 32 24 23 25 21 22 25 26 25 17 19
54 52 50 48 39 40 40 36 34 33 31 32 30 27 23 23 22 26 31 48 49 51 54 53 47 44 38 38 39 35 32 35 31 28 24 24 24 21 26 21 19 19 18
54 54 52 45 39 37 41 33 34 34 31 32 31 27 23 26 24 26 35 56 51 51 55 50 47 43 40 39 37 39 31 34 35 31 31 27 27 30 25 28 32 26 26
57 56 52 48 42 36 45 35 33 33 32 30 27 25 24 28 30 26 39 57 59 56 55 48 39 48 46 40 38 41 37 43 34 35 34 34 36 35 29 33 36 34 32
54 54 52 46 42 35 45 36 32 31 31 28 25 24 25 30 34 27 45 59 62 59 56 54 54 51 47 46 46 39 37 34 37 38 40 40 35 37 41 38 38 37 37
55 53 53 47 43 34 42 35 33 29 28 27 25 24 25 30 34 28 52 56 66 57 66 57 55 54 56 53 46 41 41 40 41 46 48 45 45 42 39 38 40 44 45
55 55 53 48 45 33 40 34 34 29 26 27 27 28 28 32 33 28 49 61 58 61 64 60 54 56 60 53 50 48 44 43 40 46 46 39 41 43 43 42 45 46 49

GFSSE_250_spd_108.txt.gz
Wind_Speed
55 55 54 51 52 53 54 56 56 55 54 54 56 58 60 62 65 69 70 72 75 78 81 83 84 85 85 85 85 85 85 85 86 86 85 84 83 83 82 83 84 82 79
51 48 48 47 47 47 47 49 51 52 55 56 54 54 55 56 59 62 65 68 68 70 74 81 83 85 87 86 86 87 87 86 85 86 84 86 86 85 85 85 83 83 83
50 50 49 48 45 45 45 46 44 47 50 51 51 52 54 54 55 59 60 61 61 63 65 67 73 78 82 84 85 83 86 89 89 87 86 85 86 83 82 82 82 82 82
48 48 48 48 47 44 44 41 43 45 47 49 49 49 50 51 52 54 56 55 56 58 60 61 61 64 68 72 78 81 80 82 82 81 83 84 86 85 84 80 79 79 78
45 47 47 50 46 46 42 39 42 44 45 46 47 44 47 46 47 49 49 48 48 48 46 49 52 56 57 60 61 64 68 68 70 68 69 69 72 73 75 73 70 69 68
46 47 47 49 49 44 41 41 40 43 42 39 40 39 41 41 42 44 44 44 43 42 41 45 46 45 49 53 52 56 56 54 53 51 52 53 56 56 57 55 53 54 55
44 44 46 50 46 43 44 43 39 39 40 38 34 35 34 35 36 40 40 40 42 45 42 38 49 49 45 47 48 50 50 46 47 48 48 47 45 46 46 45 42 43 40
46 48 51 51 48 44 37 41 37 39 35 36 33 32 29 32 32 34 34 34 36 38 40 40 45 43 44 41 44 45 47 42 43 47 48 46 45 38 33 31 33 36 35
50 52 54 49 48 47 39 42 34 37 37 33 31 28 30 29 32 34 37 36 29 35 38 42 44 28 43 37 37 39 40 39 40 43 40 37 31 28 27 29 32 33 29
55 55 53 47 45 46 43 44 41 41 39 34 28 26 30 31 35 35 37 40 42 33 30 43 37 39 33 35 35 37 37 33 27 21 23 26 26 27 26 32 28 26 21
56 55 50 47 44 42 46 49 43 40 37 33 28 27 27 32 33 35 38 40 44 39 38 36 39 41 37 36 35 34 36 38 35 34 30 26 28 27 31 24 23 23 23
56 50 46 46 43 44 46 48 47 41 38 33 28 30 29 33 33 33 38 44 42 44 43 36 36 41 41 41 32 35 33 38 33 30 31 29 31 29 23 19 17 23 24
48 48 49 49 47 44 46 46 48 40 38 33 30 30 30 33 35 35 37 39 39 42 41 45 43 41 45 40 37 33 30 35 28 30 30 30 25 16 14 18 20 22 25
50 53 50 51 44 46 46 45 48 44 40 39 30 32 32 34 35 34 35 38 38 37 37 37 42 45 44 42 42 35 38 30 28 25 26 22 23 17 16 15 19 21 23
53 53 53 47 47 48 45 46 50 46 39 42 31 35 33 33 35 34 36 36 37 37 36 35 40 50 49 44 40 37 31 35 30 29 23 20 19 18 21 17 20 22 26
56 58 50 51 45 46 47 46 48 43 43 37 32 34 34 34 34 34 34 33 35 34 35 33 44 51 50 44 41 40 38 36 32 27 28 22 17 20 17 18 18 24 26
55 52 54 49 45 47 48 49 49 41 42 35 32 33 34 33 32 30 31 31 31 32 35 36 42 54 51 46 43 39 36 37 35 30 30 25 22 22 17 16 18 22 17
56 53 55 50 47 46 46 51 48 45 40 37 32 32 31 32 29 29 27 26 25 29 31 33 46 53 46 46 42 40 34 35 34 32 30 25 27 22 19 17 13 18 20
52 52 49 49 49 50 52 48 48 47 43 38 30 31 32 31 29 26 26 20 18 16 23 27 47 48 44 46 43 40 40 40 27 30 30 27 25 18 20 16 15 19 24
59 58 60 59 58 53 49 47 50 46 39 37 30 31 32 32 28 26 24 19 17 19 21 35 46 40 42 43 44 42 41 42 33 30 32 28 27 26 21 17 16 23 23
59 60 59 59 59 52 47 47 47 46 39 38 31 31 32 33 29 25 20 20 25 28 27 43 52 48 46 43 44 42 38 39 38 34 35 27 27 27 23 21 22 23 16
57 52 52 55 55 51 48 48 50 47 39 39 33 31 32 33 30 26 20 22 25 36 35 49 53 51 48 47 44 36 37 34 34 39 36 31 25 29 24 21 27 24 24
53 53 53 54 53 52 45 48 50 49 39 38 34 31 32 32 29 28 25 22 27 39 48 51 52 51 46 47 48 44 42 40 38 34 37 43 31 26 28 26 31 30 30
57 56 56 56 51 52 45 44 48 46 40 37 35 31 33 30 28 30 27 24 30 45 57 51 56 53 54 49 47 42 39 41 36 43 39 38 36 35 33 33 32 35 37
61 55 56 57 53 52 48 42 45 46 39 37 35 31 33 29 28 32 31 28 30 48 64 61 57 60 52 47 47 46 37 47 40 41 43 36 39 44 36 35 39 37 39
56 58 56 55 53 52 48 43 43 46 38 38 35 30 32 29 31 33 33 33 31 45 69 64 60 60 53 47 48 50 50 48 43 41 40 39 40 42 40 43 45 46 46

GFSSE_250_spd_111.txt.gz
Wind_Speed
57 56 57 56 53 53 52 51 52 55 55 54 55 57 60 63 65 67 69 70 72 74 77 80 82 85 86 85 85 85 85 86 88 86 85 85 85 84 83 83 81 82 82
55 55 56 52 52 50 48 46 46 47 47 48 48 51 56 59 62 63 64 66 67 68 70 73 76 80 84 85 85 86 87 87 89 89 87 86 84 83 82 81 80 82 81
50 49 47 47 47 45 45 44 41 40 41 40 42 46 50 54 57 60 63 65 62 63 66 66 67 70 71 73 76 82 85 86 86 86 83 85 84 86 84 82 81 79 78
47 44 42 42 44 43 42 42 41 43 41 40 42 45 49 51 53 56 58 59 58 57 58 60 61 63 64 63 60 63 71 78 79 75 77 77 75 78 75 76 77 78 76
43 43 41 41 43 46 45 48 47 44 41 40 41 43 46 46 50 53 55 54 54 52 51 51 53 55 53 56 58 56 57 59 62 63 64 63 66 64 61 60 64 66 64
40 40 40 43 45 48 48 48 46 43 42 41 41 44 44 44 45 45 47 48 47 46 43 41 41 40 41 45 45 51 52 53 53 51 50 51 52 53 54 52 53 55 56
37 39 43 47 47 51 52 48 42 43 43 34 42 39 39 40 41 39 38 36 37 37 37 38 42 38 35 40 42 46 44 44 45 45 44 45 45 43 41 43 44 46 45
38 40 45 48 50 54 52 46 42 42 45 46 41 41 37 37 38 34 32 31 31 31 31 35 39 43 43 37 36 41 39 41 41 40 40 41 42 37 38 39 40 41 34
41 43 46 49 53 57 52 46 44 43 45 44 44 41 34 31 32 30 29 30 31 34 35 31 30 31 35 29 27 35 34 35 36 39 39 40 42 41 43 40 37 32 34
41 46 48 50 54 53 49 47 45 45 43 45 41 40 32 30 33 30 30 29 30 34 36 33 34 31 36 30 30 36 34 34 35 33 34 37 37 37 38 28 28 33 31
42 47 48 50 54 50 48 49 51 43 42 42 41 40 32 28 32 34 31 31 33 37 38 36 35 33 39 36 36 37 36 33 34 26 32 27 21 20 25 26 29 27 31
47 48 50 51 52 50 50 51 52 44 42 41 42 39 32 32 31 32 33 33 34 35 37 36 37 38 39 42 42 41 36 30 30 29 34 30 30 27 29 28 25 28 25
52 49 51 51 51 47 49 50 52 47 43 42 45 37 33 33 31 29 33 35 34 36 39 40 42 35 39 45 42 41 37 31 26 28 33 33 31 30 32 30 24 28 24
57 55 53 54 51 46 48 52 53 49 43 42 48 40 36 34 31 31 34 35 38 38 39 39 38 36 38 47 43 44 37 35 31 27 31 33 30 32 29 23 20 24 25
57 55 53 57 53 49 47 44 49 50 43 44 47 42 37 33 32 31 32 35 37 37 34 33 32 35 38 48 44 47 42 43 32 32 32 32 29 25 26 20 18 21 23
58 53 56 56 54 48 48 44 48 48 47 46 46 43 40 36 31 30 32 33 34 31 32 31 32 34 35 39 44 47 45 37 32 34 27 25 23 21 23 19 17 19 23
57 59 55 57 53 51 48 47 49 46 47 51 45 45 42 39 33 33 32 32 31 32 33 30 32 32 35 40 49 48 43 37 35 34 29 28 27 23 22 18 19 18 20
61 57 55 55 56 53 46 46 47 48 53 52 45 45 43 38 33 32 33 31 30 32 32 32 33 34 36 46 53 51 42 39 33 29 27 33 30 26 22 21 19 18 20
56 57 57 58 57 53 51 50 55 53 56 53 46 44 40 40 34 30 33 32 29 33 33 28 24 31 37 50 58 54 42 43 34 29 31 32 33 28 25 25 24 20 15
59 58 59 60 58 56 58 59 59 54 57 53 46 45 42 38 35 31 31 30 29 30 27 18 15 17 29 48 57 51 46 44 36 34 30 33 34 29 30 25 28 20 14
63 62 62 61 60 60 59 54 56 51 53 55 44 44 43 42 36 34 32 29 28 26 25 28 18 18 19 40 51 45 43 41 35 36 33 29 32 32 32 34 28 25 15
66 66 62 60 60 59 52 48 50 51 51 53 47 44 43 43 37 35 32 29 27 27 24 27 19 22 28 41 39 42 40 39 39 38 34 32 31 31 30 34 29 29 22
70 65 63 61 58 56 57 55 52 50 49 51 48 44 44 42 37 36 32 29 30 28 21 32 27 28 33 43 45 42 48 44 45 42 38 35 38 34 28 30 31 27 26
72 66 60 63 65 59 61 60 56 52 49 50 49 43 42 39 35 36 32 31 33 29 22 38 35 34 36 43 49 43 43 42 41 38 39 34 39 39 36 34 27 30 27
71 65 61 65 65 61 61 62 59 54 50 49 49 44 42 38 34 37 33 33 34 34 27 43 43 49 42 44 48 51 43 49 46 47 44 43 37 39 40 36 36 37 36
72 71 65 61 61 61 62 60 60 56 50 48 49 46 43 38 34 37 34 36 37 35 34 29 55 50 55 46 50 47 54 50 48 50 41 40 43 41 47 42 37 40 38

GFSSE_250_spd_114.txt.gz
Wind_Speed
62 61 61 59 56 54 51 49 49 50 51 52 53 54 57 60 63 65 66 68 69 69 69 72 76 78 78 80 77 76 77 79 75 69 74 74 72 72 70 74 76 76 78
56 58 58 53 52 50 51 45 44 44 46 48 49 49 49 50 54 58 60 63 65 67 68 66 68 70 74 77 77 78 77 80 83 83 83 81 79 81 80 79 79 79 79
51 52 51 47 44 44 42 43 40 41 41 39 40 40 42 44 46 48 52 56 58 61 63 65 66 66 65 66 67 70 74 77 77 81 82 81 85 84 85 84 85 84 84
48 48 45 41 36 37 38 40 40 43 44 42 39 36 37 40 43 45 47 49 51 54 56 58 60 60 61 60 59 61 61 65 66 67 66 67 69 71 67 69 71 69 69
43 42 38 36 32 32 34 38 41 43 43 41 39 38 35 39 42 45 44 44 47 48 48 47 50 47 43 44 46 52 51 54 56 59 54 56 53 51 51 53 54 53 51
39 36 33 33 32 33 36 40 44 43 43 40 38 38 37 38 38 40 42 42 44 43 38 32 33 37 40 40 36 38 41 41 46 45 49 51 47 45 47 47 46 46 49
37 35 35 34 35 35 38 41 46 44 42 38 38 38 39 38 37 39 39 38 38 37 37 33 32 31 38 36 37 37 34 29 33 34 39 41 39 40 40 42 41 43 42
37 37 37 37 37 39 41 42 46 45 44 39 41 42 41 36 37 37 34 31 31 31 32 30 32 23 28 36 41 38 33 30 28 25 32 33 34 36 35 35 35 34 33
37 39 40 42 41 41 45 44 48 47 45 42 42 41 43 39 40 35 34 29 27 28 30 31 31 28 28 27 25 31 37 29 25 28 33 34 33 33 33 35 33 34 34
38 41 43 44 44 45 49 50 51 49 45 42 41 43 43 41 43 37 34 31 31 28 30 31 31 26 27 29 29 29 31 23 22 21 30 29 30 32 32 33 35 36 36
41 41 45 45 46 45 48 52 54 52 47 43 43 41 41 40 42 37 34 35 35 33 34 35 33 34 32 32 33 35 40 33 26 29 31 28 28 25 27 29 32 34 29
46 43 46 48 50 47 49 51 53 52 50 47 43 42 43 37 38 39 34 35 37 35 35 32 34 36 35 30 35 36 39 40 30 27 31 30 27 26 23 19 20 21 20
49 48 46 49 51 51 50 51 53 54 51 47 44 42 37 35 37 35 33 34 35 35 36 36 35 37 37 34 35 40 39 40 34 27 35 29 27 26 27 25 26 24 23
50 49 48 50 54 55 53 53 51 52 52 48 46 44 39 38 37 36 33 35 35 37 38 37 36 37 37 36 34 38 40 39 36 32 26 25 25 25 30 29 29 23 24
53 53 50 53 57 54 54 53 48 52 49 49 49 48 42 41 41 41 37 33 37 36 35 37 34 36 36 36 34 38 41 40 40 27 30 28 29 27 28 32 29 26 27
61 52 51 56 55 52 54 53 50 49 51 49 51 50 48 44 43 42 34 33 33 34 33 34 33 32 31 30 30 33 44 43 41 28 36 34 31 26 26 30 33 29 25
62 63 55 56 54 55 55 55 50 48 49 49 49 52 55 51 45 42 36 35 33 31 32 32 29 30 32 32 30 32 39 43 43 40 36 31 33 24 24 19 22 22 24
64 60 59 58 55 56 56 55 52 50 47 51 53 54 56 53 45 45 38 37 34 29 31 30 33 30 30 31 31 33 35 45 48 44 36 33 28 24 25 24 24 25 23
62 57 63 58 56 57 55 54 53 55 52 52 56 57 57 51 44 45 38 37 37 33 34 30 30 31 31 35 37 36 39 49 51 42 36 29 24 24 29 30 26 21 19
53 56 56 57 55 58 59 57 57 56 55 53 54 55 53 49 44 42 39 38 37 36 33 30 29 27 26 21 26 40 45 53 50 42 35 29 28 22 27 30 30 26 21
53 56 59 58 58 60 62 60 58 57 57 57 50 51 51 48 46 42 41 40 37 35 34 30 27 29 25 25 20 25 49 54 50 43 34 29 31 26 24 26 26 27 22
58 58 60 61 61 63 63 65 60 57 57 54 54 53 53 48 46 41 42 42 37 34 34 30 28 28 31 25 26 24 42 54 45 42 34 33 33 31 28 28 27 28 27
69 69 66 64 65 64 64 67 60 58 58 58 57 57 53 51 48 41 40 44 37 32 33 29 28 29 34 23 25 17 32 49 47 39 39 38 33 33 28 27 26 29 30
72 73 68 70 70 69 68 65 61 61 61 59 61 56 56 50 49 43 40 44 36 31 33 29 29 28 28 23 22 24 35 42 45 39 38 41 37 31 33 34 28 26 29
70 73 70 71 70 68 66 64 62 64 63 61 58 57 55 52 50 43 40 42 37 32 34 30 32 30 33 30 27 32 39 43 44 42 43 44 42 39 33 35 34 31 32
71 70 69 71 68 66 66 63 61 62 60 59 59 60 60 52 50 45 41 41 39 34 35 34 32 31 42 39 34 32 40 41 40 45 47 45 40 39 36 37 37 37 38